Latitude: N 50° 09' 49" Longitude: W 05° 11' 53" Elevation: 168m ASL

There are 22 visitors online

Adverts

<- Previous Day | Today | Next Day ->

All Data for 14 March 2019

Time
A - D
Temp
A - D
Dew Point
A - D
Humidity
A - D
Pressure
A - D
Wind
A - D
Wind Dir Gust
A - D
Rain Rate
A - D
Rain Total
00:00 8.5 6.1 85 1018.7 24.4 SW 29.8 0.0 0.0
00:01 8.6 6.2 85 1018.5 20.6 SW 29.8 0.0 0.0
00:02 8.5 6.1 85 1018.6 30.4 SW 30.4 0.0 0.0
00:03 8.6 6.2 85 1018.6 28.2 NW 30.4 0.0 0.0
00:04 8.6 6.2 85 1018.6 28.2 NW 30.4 0.0 0.0
00:05 8.5 6.1 85 1018.4 19.0 SW 30.4 0.0 0.0
00:06 8.5 6.1 85 1018.4 22.1 SW 30.4 0.0 0.0
00:07 8.5 6.1 85 1018.5 18.3 SW 30.4 0.0 0.0
00:08 8.5 6.1 85 1018.4 22.1 SW 30.4 0.0 0.0
00:09 8.5 6.1 85 1018.4 21.3 SW 30.4 0.0 0.0
00:10 8.5 6.1 85 1018.6 23.5 SW 30.4 0.0 0.0
00:11 8.5 6.1 85 1018.6 23.5 SW 30.4 0.0 0.0
00:12 8.5 6.1 85 1018.4 21.3 SW 28.2 0.0 0.0
00:13 8.5 6.1 85 1018.6 22.1 SW 28.2 0.0 0.0
00:14 8.5 6.1 85 1018.6 21.3 SW 25.1 0.0 0.0
00:15 8.5 6.1 85 1018.7 28.2 SW 28.2 0.0 0.0
00:16 8.5 6.1 85 1018.5 28.2 SW 28.2 0.0 0.0
00:17 8.5 6.1 85 1018.6 22.8 SW 28.2 0.0 0.0
00:18 8.5 6.1 85 1018.5 21.3 WNW 28.2 0.0 0.0
00:19 8.5 6.1 85 1018.4 20.6 NW 29.8 0.0 0.0
00:20 8.5 6.1 85 1018.5 16.8 WSW 29.8 0.0 0.0
00:21 8.5 6.1 85 1018.5 16.8 SW 29.8 0.0 0.0
00:22 8.5 6.1 85 1018.7 21.3 SW 29.8 0.0 0.0
00:23 8.5 6.1 85 1018.7 19.7 N 29.8 0.0 0.0
00:24 8.5 6.1 85 1018.6 19.7 SW 29.8 0.0 0.0
00:25 8.5 6.1 85 1018.5 15.2 SW 29.8 0.0 0.0
00:26 8.5 6.1 85 1018.5 19.0 W 29.8 0.0 0.0
00:27 8.5 6.1 85 1018.4 19.7 NW 29.8 0.0 0.0
00:28 8.5 6.1 85 1018.6 20.6 S 29.8 0.0 0.0
00:29 8.5 6.1 85 1018.4 16.8 NW 29.8 0.0 0.0
00:30 8.5 6.1 85 1018.5 27.3 SW 27.3 0.0 0.0
00:31 8.5 6.1 85 1018.5 22.1 SW 27.3 0.0 0.0
00:32 8.5 6.1 85 1018.4 29.8 SW 29.8 0.0 0.0
00:33 8.5 6.1 85 1018.4 22.8 SW 29.8 0.0 0.0
00:34 8.5 6.1 85 1018.5 20.6 SW 29.8 0.0 0.0
00:35 8.6 6.2 85 1018.3 21.3 WNW 29.8 0.0 0.0
00:36 8.6 6.2 85 1018.0 21.3 WSW 29.8 0.0 0.0
00:37 8.6 6.2 85 1018.3 23.5 SW 29.8 0.0 0.0
00:38 8.6 6.2 85 1018.3 16.8 SW 29.8 0.0 0.0
00:39 8.6 6.2 85 1018.4 23.5 SW 29.8 0.0 0.0
00:40 8.6 6.2 85 1018.4 23.5 SW 29.8 0.0 0.0
00:41 8.6 6.2 85 1018.2 16.8 SW 29.8 0.0 0.0
00:42 8.6 6.2 85 1018.1 21.3 NW 29.8 0.0 0.0
00:43 8.6 6.2 85 1018.2 24.4 SW 28.2 0.0 0.0
00:44 8.6 6.2 85 1018.1 21.3 SW 28.2 0.0 0.0
00:45 8.6 6.2 85 1018.1 18.3 W 28.2 0.0 0.0
00:46 8.6 6.2 85 1018.3 21.3 S 28.2 0.0 0.0
00:47 8.6 6.2 85 1018.0 25.1 SW 28.2 0.0 0.0
00:48 8.6 6.2 85 1018.1 21.3 NW 28.2 0.0 0.0
00:49 8.6 6.2 85 1018.1 25.9 S 28.2 0.0 0.0
00:50 8.6 6.2 85 1018.1 24.4 SW 28.2 0.0 0.0
00:51 8.6 6.2 85 1018.2 20.6 SW 28.2 0.0 0.0
00:52 8.6 6.2 85 1018.2 22.8 SW 25.9 0.0 0.0
00:53 8.6 6.2 85 1018.1 22.1 S 25.9 0.0 0.0
00:54 8.6 6.2 85 1018.1 22.1 SW 25.9 0.0 0.0
00:55 8.6 6.2 85 1018.2 24.4 NW 28.2 0.0 0.0
00:56 8.6 6.2 85 1018.1 19.7 SW 28.2 0.0 0.0
00:57 8.6 6.2 85 1018.0 23.5 SW 28.2 0.0 0.0
00:58 8.6 6.2 85 1018.2 24.4 SW 28.2 0.0 0.0
00:59 8.7 6.3 85 1018.2 22.8 SW 28.2 0.0 0.0
01:00 8.7 6.3 85 1018.1 23.5 SW 28.2 0.0 0.0
01:01 8.7 6.3 85 1018.0 16.8 SW 28.2 0.0 0.0
01:02 8.7 6.3 85 1017.9 19.0 W 28.2 0.0 0.0
01:03 8.7 6.3 85 1018.1 19.0 WSW 28.2 0.0 0.0
01:04 8.7 6.3 85 1018.3 26.6 SW 28.2 0.0 0.0
01:05 8.7 6.3 85 1018.1 23.5 SW 28.2 0.0 0.0
01:06 8.7 6.3 85 1018.2 17.4 WNW 26.6 0.0 0.0
01:07 8.7 6.3 85 1017.9 24.4 S 26.6 0.0 0.0
01:08 8.7 6.3 85 1018.2 25.9 SW 26.6 0.0 0.0
01:09 8.7 6.3 85 1018.0 24.4 N 26.6 0.0 0.0
01:10 8.7 6.3 85 1018.2 24.4 SW 26.6 0.0 0.0
01:11 8.7 6.3 85 1018.0 18.3 SW 26.6 0.0 0.0
01:12 8.7 6.3 85 1018.0 15.2 SW 26.6 0.0 0.0
01:13 8.7 6.3 85 1018.0 28.9 SW 28.9 0.0 0.0
01:14 8.7 6.3 85 1018.0 25.1 S 28.9 0.0 0.0
01:15 8.7 6.1 84 1018.1 19.0 S 28.9 0.0 0.0
01:16 8.7 6.3 85 1017.9 22.1 WSW 28.9 0.0 0.0
01:17 8.7 6.3 85 1018.3 20.6 SW 28.9 0.0 0.0
01:18 8.7 6.3 85 1018.0 24.4 SW 28.9 0.0 0.0
01:19 8.7 6.3 85 1018.0 25.9 SW 28.9 0.0 0.0
01:20 8.8 6.4 85 1017.9 21.3 WNW 28.9 0.0 0.0
01:21 8.7 6.3 85 1017.9 23.5 SW 28.9 0.0 0.0
01:22 8.8 6.4 85 1017.8 20.6 SW 28.9 0.0 0.0
01:23 8.8 6.4 85 1018.0 23.5 SW 28.9 0.0 0.0
01:24 8.8 6.4 85 1017.9 28.9 SW 28.9 0.0 0.0
01:25 8.8 6.4 85 1017.7 25.1 SW 28.9 0.0 0.0
01:26 8.8 6.4 85 1017.7 23.5 N 28.9 0.0 0.0
01:27 8.8 6.4 85 1018.0 22.1 SW 28.9 0.0 0.0
01:28 8.8 6.4 85 1018.0 26.6 SW 28.9 0.0 0.0
01:29 8.8 6.4 85 1017.9 19.7 NW 28.9 0.0 0.0
01:30 8.8 6.4 85 1018.0 21.3 SW 28.9 0.0 0.0
01:31 8.9 6.5 85 1017.5 28.2 WSW 28.9 0.0 0.0
01:32 8.9 6.5 85 1017.8 25.1 SW 28.9 0.0 0.0
01:33 8.9 6.5 85 1017.9 19.0 S 28.9 0.0 0.0
01:34 8.9 6.5 85 1017.7 23.5 SW 28.9 0.0 0.0
01:35 8.9 6.5 85 1018.1 22.8 SW 28.2 0.0 0.0
01:36 8.9 6.5 85 1017.7 25.9 SW 28.2 0.0 0.0
01:37 8.8 6.4 85 1017.8 23.5 SW 28.2 0.0 0.0
01:38 8.9 6.5 85 1017.8 17.4 WSW 28.2 0.0 0.0
01:39 8.9 6.5 85 1017.8 18.3 SW 28.2 0.0 0.0
01:40 8.9 6.5 85 1017.9 21.3 NW 28.2 0.0 0.0
01:41 8.9 6.5 85 1017.7 16.8 SW 28.2 0.0 0.0
01:42 8.9 6.5 85 1017.8 27.3 SW 27.3 0.0 0.0
01:43 8.9 6.5 85 1017.6 28.2 S 28.2 0.0 0.0
01:44 8.9 6.5 85 1017.7 24.4 SW 28.2 0.0 0.0
01:45 8.9 6.5 85 1017.7 18.3 SW 28.2 0.0 0.0
01:46 8.9 6.5 85 1017.7 25.9 SW 28.2 0.0 0.0
01:47 8.9 6.5 85 1017.6 20.6 SW 28.2 0.0 0.0
01:48 8.8 6.4 85 1017.7 22.1 SW 28.2 0.0 0.0
01:49 8.8 6.4 85 1017.5 24.4 SW 28.2 0.0 0.0
01:50 8.9 6.5 85 1017.7 27.3 SW 28.2 0.0 0.0
01:51 8.9 6.5 85 1017.7 22.1 SW 28.2 0.0 0.0
01:52 8.9 6.5 85 1017.8 22.8 SW 28.2 0.0 0.0
01:53 8.8 6.4 85 1017.8 29.8 WNW 29.8 0.0 0.0
01:54 8.9 6.5 85 1017.7 18.3 SW 29.8 0.0 0.0
01:55 8.9 6.5 85 1017.5 29.8 SW 29.8 0.0 0.0
01:56 8.8 6.4 85 1017.6 30.4 WNW 30.4 0.0 0.0
01:57 8.8 6.4 85 1017.7 22.1 SW 30.4 0.0 0.0
01:58 8.9 6.5 85 1017.7 25.9 SW 30.4 0.0 0.0
01:59 8.9 6.5 85 1017.7 22.8 SW 30.4 0.0 0.0
02:00 8.8 6.4 85 1017.8 17.4 SW 30.4 0.0 0.0
02:01 8.8 6.4 85 1017.6 22.8 N 30.4 0.0 0.0
02:02 8.8 6.4 85 1017.6 25.1 SW 30.4 0.0 0.0
02:03 8.8 6.4 85 1017.7 26.6 S 30.4 0.0 0.0
02:04 8.8 6.4 85 1017.9 25.1 SW 30.4 0.0 0.0
02:05 8.8 6.4 85 1017.7 22.1 SW 30.4 0.0 0.0
02:06 8.8 6.4 85 1017.6 22.8 SW 30.4 0.0 0.0
02:07 8.8 6.4 85 1017.7 22.8 SW 28.9 0.0 0.0
02:08 8.7 6.3 85 1017.8 19.0 SW 28.9 0.0 0.0
02:09 8.8 6.4 85 1017.6 19.0 SW 28.9 0.0 0.0
02:10 8.8 6.4 85 1017.5 19.7 SW 28.9 0.0 0.0
02:11 8.9 6.5 85 1017.6 17.4 WSW 28.9 0.0 0.0
02:12 8.9 6.5 85 1017.5 28.9 SW 28.9 0.0 0.0
02:13 8.8 6.4 85 1017.5 27.3 SW 28.9 0.0 0.0
02:14 8.9 6.5 85 1017.6 18.3 S 28.9 0.0 0.0
02:15 8.9 6.5 85 1017.5 23.5 SW 28.9 0.0 0.0
02:16 8.9 6.5 85 1017.5 23.5 SW 28.9 0.0 0.0
02:17 8.9 6.5 85 1017.6 23.5 W 28.9 0.0 0.0
02:18 8.9 6.5 85 1017.6 24.4 SE 28.9 0.0 0.0
02:19 8.9 6.5 85 1017.3 27.3 SW 28.9 0.0 0.0
02:20 8.9 6.5 85 1017.5 25.9 SW 28.9 0.0 0.0
02:21 8.9 6.5 85 1017.5 20.6 SW 28.9 0.0 0.0
02:22 8.9 6.5 85 1017.5 22.1 WSW 28.9 0.0 0.0
02:23 8.9 6.5 85 1017.3 25.1 S 27.3 0.0 0.0
02:24 8.9 6.5 85 1017.3 28.2 SW 28.2 0.0 0.0
02:26 9.0 6.6 85 1017.2 24.4 S 28.2 0.0 0.0
02:27 9.0 6.6 85 1017.2 22.8 SW 28.2 0.0 0.0
02:28 9.0 6.6 85 1017.2 28.9 SW 28.9 0.0 0.0
02:29 9.0 6.6 85 1017.4 22.8 SW 28.9 0.0 0.0
02:30 8.9 6.5 85 1017.1 28.2 SW 28.9 0.0 0.0
02:31 8.9 6.5 85 1017.0 28.2 SW 28.9 0.0 0.0
02:32 9.0 6.6 85 1017.1 21.3 NW 28.9 0.0 0.0
02:33 9.0 6.6 85 1017.1 20.6 SW 28.9 0.0 0.0
02:34 9.0 6.6 85 1017.4 15.2 S 28.9 0.0 0.0
02:35 9.0 6.6 85 1017.1 25.9 WSW 28.9 0.0 0.0
02:36 9.0 6.6 85 1017.1 25.9 SW 28.9 0.0 0.0
02:37 9.0 6.6 85 1017.3 25.9 SW 28.9 0.0 0.0
02:38 9.0 6.6 85 1017.2 26.6 N 28.9 0.0 0.0
02:39 9.0 6.6 85 1017.3 19.0 SW 28.2 0.0 0.0
02:40 9.0 6.6 85 1017.0 19.7 S 28.2 0.0 0.0
02:41 9.0 6.6 85 1017.1 23.5 SW 28.2 0.0 0.0
02:42 9.0 6.6 85 1017.1 18.3 SW 26.6 0.0 0.0
02:44 9.0 6.6 85 1016.8 22.8 SW 26.6 0.0 0.0
02:45 9.0 6.6 85 1017.1 16.8 SW 26.6 0.0 0.0
02:46 9.0 6.8 86 1016.9 21.3 SW 26.6 0.0 0.0
02:47 9.0 6.8 86 1016.9 22.8 S 26.6 0.0 0.0
02:48 9.0 6.8 86 1016.7 22.1 NW 25.9 0.0 0.0
02:49 9.0 6.6 85 1016.9 25.9 S 25.9 0.0 0.0
02:50 9.0 6.8 86 1016.9 22.8 SW 25.9 0.0 0.0
02:51 9.0 6.6 85 1016.8 24.4 WSW 25.9 0.0 0.0
02:52 9.0 6.6 85 1016.8 24.4 WSW 25.9 0.0 0.0
02:53 9.0 6.6 85 1016.7 28.2 SW 28.2 0.0 0.0
02:54 9.0 6.6 85 1016.8 27.3 SW 28.2 0.0 0.0
02:55 9.0 6.6 85 1016.8 23.5 SW 28.2 0.0 0.0
02:56 9.0 6.6 85 1016.7 27.3 SW 28.2 0.0 0.0
02:57 9.0 6.6 85 1016.6 17.4 SW 28.2 0.0 0.0
02:58 9.0 6.6 85 1016.8 16.8 SW 28.2 0.0 0.0
02:59 9.0 6.6 85 1016.6 19.7 SW 28.2 0.0 0.0
03:00 8.9 6.5 85 1016.8 15.9 SW 28.2 0.0 0.0
03:01 9.0 6.6 85 1016.5 22.8 S 28.2 0.0 0.0
03:02 9.0 6.6 85 1016.7 23.5 SW 28.2 0.0 0.0
03:03 9.0 6.6 85 1016.7 19.0 SW 28.2 0.0 0.0
03:05 9.0 6.6 85 1016.6 25.9 SW 27.3 0.0 0.0
03:06 9.0 6.6 85 1016.6 20.6 N 25.9 0.0 0.0
03:07 9.0 6.6 85 1016.5 18.3 N 25.9 0.0 0.0
03:08 9.0 6.6 85 1016.5 19.0 S 25.9 0.0 0.0
03:09 9.0 6.6 85 1016.6 19.7 S 25.9 0.0 0.0
03:10 9.0 6.6 85 1016.5 19.0 SW 25.9 0.0 0.0
03:11 9.0 6.6 85 1016.3 16.8 SE 25.9 0.0 0.0
03:12 9.0 6.6 85 1016.3 24.4 SW 25.9 0.0 0.0
03:13 8.9 6.5 85 1016.2 17.4 SW 25.9 0.0 0.0
03:14 9.0 6.6 85 1016.3 24.4 S 25.9 0.0 0.0
03:15 9.0 6.6 85 1016.2 23.5 S 25.9 0.0 0.0
03:16 9.0 6.6 85 1016.3 15.2 SW 24.4 0.0 0.0
03:17 9.0 6.6 85 1016.1 23.5 NW 24.4 0.0 0.0
03:18 9.0 6.6 85 1016.2 20.6 SW 24.4 0.0 0.0
03:19 8.9 6.5 85 1016.3 19.0 SW 24.4 0.0 0.0
03:20 9.0 6.6 85 1016.2 15.9 WSW 24.4 0.0 0.0
03:21 8.9 6.5 85 1016.2 21.3 NW 24.4 0.0 0.0
03:22 8.9 6.5 85 1016.2 16.8 W 24.4 0.0 0.0
03:24 8.9 6.7 86 1016.2 26.6 WSW 26.6 0.0 0.0
03:25 8.9 6.7 86 1016.1 25.1 S 26.6 0.0 0.0
03:26 8.9 6.7 86 1016.3 21.3 SW 26.6 0.0 0.0
03:27 8.9 6.7 86 1016.2 20.6 SW 26.6 0.0 0.0
03:28 8.9 6.7 86 1016.4 22.8 WNW 26.6 0.0 0.0
03:29 8.9 6.7 86 1016.1 23.5 NW 26.6 0.0 0.0
03:30 8.9 6.7 86 1016.1 25.9 SW 26.6 0.0 0.0
03:31 9.0 6.8 86 1016.3 23.5 S 26.6 0.0 0.0
03:32 9.0 6.8 86 1016.3 25.1 S 26.6 0.0 0.0
03:33 9.0 6.8 86 1016.3 27.3 SW 27.3 0.0 0.0
03:34 9.0 6.8 86 1016.2 18.3 SW 27.3 0.0 0.0
03:35 9.0 6.8 86 1016.3 26.6 S 27.3 0.0 0.0
03:36 9.0 6.8 86 1015.9 28.9 N 28.9 0.0 0.0
03:37 9.0 6.8 86 1016.2 25.9 SW 33.6 0.0 0.0
03:38 9.0 6.8 86 1016.3 24.4 S 33.6 0.0 0.0
03:39 9.0 6.8 86 1016.1 26.6 S 33.6 0.0 0.0
03:40 9.0 6.8 86 1016.0 16.8 S 33.6 0.0 0.0
03:41 9.0 6.8 86 1016.1 22.8 SW 33.6 0.0 0.0
03:42 9.0 6.8 86 1016.0 24.4 SW 33.6 0.0 0.0
03:44 9.0 6.8 86 1015.9 22.1 NW 33.6 0.0 0.0
03:45 9.0 6.8 86 1016.0 24.4 S 33.6 0.0 0.0
03:46 9.2 7.0 86 1016.0 23.5 SW 33.6 0.0 0.0
03:47 9.0 6.8 86 1015.8 26.6 SW 26.6 0.0 0.0
03:48 9.0 6.8 86 1015.7 22.8 WNW 26.6 0.0 0.0
03:49 9.0 6.8 86 1015.8 21.3 SW 26.6 0.0 0.0
03:50 9.0 6.8 86 1015.7 20.6 SW 26.6 0.0 0.0
03:51 9.0 6.8 86 1015.7 19.7 S 26.6 0.0 0.0
03:52 9.0 6.8 86 1015.7 19.7 S 26.6 0.0 0.0
03:53 9.0 6.8 86 1015.7 16.8 W 26.6 0.0 0.0
03:54 9.0 6.8 86 1015.5 30.4 SW 30.4 0.0 0.0
03:55 9.0 6.8 86 1015.6 27.3 SE 30.4 0.0 0.0
03:56 9.0 6.8 86 1015.4 25.9 SW 30.4 0.0 0.0
03:57 9.0 6.8 86 1015.4 19.0 SW 30.4 0.0 0.0
03:58 9.0 6.8 86 1015.4 22.8 SW 34.2 0.0 0.0
03:59 9.0 6.8 86 1015.3 30.4 SW 34.2 0.0 0.0
04:00 9.0 6.6 85 1015.3 28.2 SW 34.2 0.0 0.0
04:01 9.0 6.6 85 1015.4 20.6 SW 34.2 0.0 0.0
04:03 9.1 6.7 85 1015.3 19.7 SW 34.2 0.0 0.0
04:04 9.1 6.7 85 1015.3 17.4 SW 34.2 0.0 0.0
04:05 9.1 6.7 85 1015.4 17.4 SW 34.2 0.0 0.0
04:06 9.1 6.7 85 1015.4 25.9 SW 34.2 0.0 0.0
04:07 9.1 6.7 85 1015.2 28.2 WSW 34.2 0.0 0.0
04:08 9.1 6.7 85 1015.1 22.8 SW 32.0 0.0 0.0
04:09 9.1 6.7 85 1015.0 24.4 WSW 32.0 0.0 0.0
04:10 9.1 6.7 85 1015.2 25.9 SW 32.0 0.0 0.0
04:11 9.1 6.7 85 1015.3 20.6 S 32.0 0.0 0.0
04:12 9.1 6.7 85 1015.1 28.9 S 32.0 0.0 0.0
04:13 9.1 6.7 85 1015.2 28.2 SW 32.0 0.0 0.0
04:14 9.1 6.7 85 1015.1 29.8 SW 32.0 0.0 0.0
04:15 9.1 6.7 85 1015.0 27.3 WSW 32.0 0.0 0.0
04:16 9.1 6.7 85 1015.1 20.6 SW 32.0 0.0 0.0
04:17 9.1 6.7 85 1015.2 25.1 SW 32.0 0.0 0.0
04:18 9.1 6.7 85 1015.3 31.1 SW 31.1 0.0 0.0
04:19 9.1 6.7 85 1015.2 20.6 SW 31.1 0.0 0.0
04:20 9.2 6.8 85 1014.7 32.7 SW 32.7 0.0 0.0
04:22 9.1 6.7 85 1015.1 19.7 S 32.7 0.0 0.0
04:23 9.2 6.8 85 1015.3 17.4 SE 32.7 0.0 0.0
04:24 9.1 6.7 85 1015.1 21.3 S 32.7 0.0 0.0
04:25 9.1 6.7 85 1015.0 24.4 SW 32.7 0.0 0.0
04:26 9.2 6.8 85 1015.0 22.8 SW 32.7 0.0 0.0
04:27 9.2 6.8 85 1015.2 20.6 SW 32.7 0.0 0.0
04:28 9.1 6.7 85 1015.0 20.6 SW 32.7 0.0 0.0
04:29 9.2 6.8 85 1015.2 25.1 SW 32.7 0.0 0.0
04:30 9.2 6.8 85 1015.0 22.1 SW 30.4 0.0 0.0
04:31 9.2 6.8 85 1014.9 25.9 SW 28.9 0.0 0.0
04:32 9.2 6.8 85 1015.1 26.6 SW 26.6 0.0 0.0
04:33 9.2 6.8 85 1014.9 25.1 SW 26.6 0.0 0.0
04:34 9.2 6.8 85 1014.8 24.4 NW 26.6 0.0 0.0
04:35 9.2 6.8 85 1014.9 22.1 S 26.6 0.0 0.0
04:36 9.3 6.9 85 1014.9 31.1 S 31.1 0.0 0.0
04:37 9.3 6.9 85 1015.0 25.9 SW 31.1 0.0 0.0
04:38 9.3 6.9 85 1014.8 24.4 SW 31.1 0.0 0.0
04:40 9.3 6.9 85 1014.9 22.8 SW 31.1 0.0 0.0
04:41 9.3 6.7 84 1014.9 24.4 SW 31.1 0.0 0.0
04:42 9.3 6.7 84 1015.0 22.8 SW 31.1 0.0 0.0
04:43 9.3 6.7 84 1014.9 27.3 SW 31.1 0.0 0.0
04:44 9.3 6.7 84 1014.7 23.5 SW 31.1 0.0 0.0
04:45 9.3 6.7 84 1014.9 23.5 SW 31.1 0.0 0.0
04:46 9.3 6.7 84 1014.6 22.8 SW 28.2 0.0 0.0
04:47 9.3 6.7 84 1014.6 22.8 SW 27.3 0.0 0.0
04:48 9.3 6.7 84 1014.8 22.1 SW 27.3 0.0 0.0
04:49 9.3 6.7 84 1014.8 19.7 WNW 27.3 0.0 0.0
04:50 9.3 6.7 84 1014.6 25.1 SW 27.3 0.0 0.0
04:51 9.3 6.7 84 1014.7 20.6 SW 27.3 0.0 0.0
04:52 9.3 6.7 84 1014.5 23.5 SW 27.3 0.0 0.0
04:53 9.3 6.7 84 1014.6 22.1 SW 27.3 0.0 0.0
04:54 9.3 6.7 84 1014.6 33.6 SW 33.6 0.0 0.0
04:55 9.3 6.7 84 1014.5 20.6 S 33.6 0.0 0.0
04:56 9.3 6.7 84 1014.6 28.9 SSW 33.6 0.0 0.0
04:57 9.4 6.8 84 1014.5 25.9 SW 33.6 0.0 0.0
04:59 9.4 6.8 84 1014.3 19.7 WNW 33.6 0.0 0.0
05:00 9.2 6.6 84 1014.5 20.6 SW 33.6 0.0 0.0
05:01 9.3 6.7 84 1014.2 26.6 WSW 33.6 0.0 0.0
05:02 9.4 6.8 84 1014.5 22.1 SW 33.6 0.0 0.0
05:03 9.4 6.8 84 1014.5 23.5 WSW 33.6 0.0 0.0
05:04 9.4 6.8 84 1014.5 19.0 SW 29.8 0.0 0.0
05:05 9.4 6.8 84 1014.6 19.0 SW 29.8 0.0 0.0
05:06 9.4 6.8 84 1014.5 19.0 SW 29.8 0.0 0.0
05:07 9.4 6.8 84 1014.8 23.5 SW 26.6 0.0 0.0
05:08 9.4 6.8 84 1014.6 20.6 SW 26.6 0.0 0.0
05:09 9.4 6.8 84 1014.6 28.9 SW 28.9 0.0 0.0
05:10 9.4 6.8 84 1014.7 26.6 WNW 28.9 0.0 0.0
05:11 9.4 6.8 84 1014.5 25.1 S 28.9 0.0 0.0
05:12 9.4 6.8 84 1014.6 29.8 SW 29.8 0.0 0.0
05:13 9.4 6.8 84 1014.3 25.9 SW 29.8 0.0 0.0
05:14 9.4 6.8 84 1014.4 32.0 SW 32.0 0.0 0.0
05:15 9.4 6.8 84 1014.6 26.6 SW 32.0 0.0 0.0
05:16 9.5 6.9 84 1014.5 20.6 SW 32.0 0.0 0.0
05:18 9.5 6.9 84 1014.2 25.9 SW 32.0 0.0 0.0
05:19 9.5 6.9 84 1014.2 19.0 SE 32.0 0.0 0.0
05:20 9.5 6.9 84 1014.3 15.9 SW 32.0 0.0 0.0
05:21 9.5 6.9 84 1014.3 23.5 SW 32.0 0.0 0.0
05:22 9.5 6.9 84 1014.4 29.8 SW 32.0 0.0 0.0
05:23 9.3 6.7 84 1014.2 36.5 WSW 36.5 0.0 0.0
05:24 9.3 6.7 84 1014.2 36.5 WSW 36.5 0.0 0.0
05:25 9.5 6.9 84 1014.4 19.0 SW 36.5 0.0 0.0
05:26 9.5 6.9 84 1014.4 28.9 SW 36.5 0.0 0.0
05:27 9.5 6.9 84 1014.5 22.8 SW 36.5 0.0 0.0
05:28 9.5 6.9 84 1014.6 30.4 SW 36.5 0.0 0.0
05:29 9.5 6.9 84 1014.3 27.3 SW 36.5 0.0 0.0
05:30 9.5 6.9 84 1014.4 27.3 SW 36.5 0.0 0.0
05:31 9.5 6.9 84 1014.4 25.9 NNW 36.5 0.0 0.0
05:32 9.5 6.9 84 1014.2 28.9 NW 36.5 0.0 0.0
05:33 9.5 6.9 84 1014.3 24.4 SW 36.5 0.0 0.0
05:34 9.5 6.9 84 1014.3 25.9 SW 33.6 0.0 0.0
05:36 9.5 6.9 84 1014.4 26.6 SW 31.1 0.0 0.0
05:37 9.5 6.9 84 1014.3 22.1 N 31.1 0.0 0.0
05:38 9.5 6.9 84 1014.3 19.0 SSW 31.1 0.0 0.0
05:39 9.5 6.9 84 1014.4 29.8 SW 31.1 0.0 0.0
05:40 9.5 6.9 84 1014.3 26.6 SW 31.1 0.0 0.0
05:41 9.5 6.9 84 1014.2 25.9 WSW 31.1 0.0 0.0
05:42 9.5 6.9 84 1014.5 29.8 S 31.1 0.0 0.0
05:43 9.5 6.9 84 1014.5 29.8 S 31.1 0.0 0.0
05:44 9.5 6.9 84 1014.2 29.8 SW 29.8 0.0 0.0
05:45 9.5 6.9 84 1013.9 29.8 W 29.8 0.0 0.0
05:46 9.5 6.9 84 1014.2 24.4 W 29.8 0.0 0.0
05:47 9.6 7.2 85 1014.0 27.3 SW 29.8 0.0 0.0
05:48 9.5 7.1 85 1013.9 32.0 WSW 32.0 0.0 0.0
05:49 9.6 7.2 85 1013.9 28.2 SW 32.0 0.0 0.0
05:50 9.6 7.2 85 1014.1 31.1 SW 32.0 0.0 0.0
05:51 9.6 7.2 85 1014.0 18.3 SW 32.0 0.0 0.0
05:52 9.6 7.2 85 1013.9 34.2 SW 34.2 0.0 0.0
05:53 9.5 7.1 85 1014.0 29.8 SW 34.2 0.0 0.0
05:55 9.6 7.2 85 1013.9 28.9 S 34.2 0.0 0.0
05:56 9.5 7.1 85 1014.1 24.4 SW 34.2 0.0 0.0
05:57 9.5 7.1 85 1013.8 30.4 W 34.2 0.0 0.0
05:58 9.4 7.0 85 1014.0 31.1 SW 34.2 0.0 0.0
05:59 9.5 7.1 85 1014.0 28.9 S 34.2 0.0 0.0
06:00 9.5 7.1 85 1013.6 28.9 N 34.2 0.0 0.0
06:01 9.5 7.1 85 1013.9 25.9 NW 34.2 0.0 0.0
06:02 9.5 7.1 85 1013.8 21.3 SW 31.1 0.0 0.0
06:03 9.5 7.1 85 1013.9 27.3 SW 31.1 0.0 0.0
06:04 9.5 7.1 85 1013.7 26.6 SW 31.1 0.0 0.0
06:05 9.5 7.1 85 1013.7 32.0 SW 32.0 0.0 0.0
06:06 9.5 7.1 85 1013.6 22.1 S 32.0 0.0 0.0
06:07 9.5 7.3 86 1013.7 26.6 S 32.0 0.0 0.0
06:08 9.5 7.3 86 1013.8 23.5 SW 32.0 0.0 0.0
06:09 9.5 7.3 86 1013.5 28.2 NW 32.0 0.0 0.0
06:10 9.5 7.3 86 1013.6 27.3 SW 32.0 0.0 0.0
06:12 9.5 7.3 86 1013.7 30.4 SW 32.0 0.0 0.0
06:13 9.6 7.4 86 1013.4 32.0 NW 32.0 0.0 0.0
06:14 9.6 7.4 86 1013.6 28.2 SSW 32.0 0.0 0.0
06:15 9.6 7.4 86 1013.5 26.6 SW 32.0 0.0 0.0
06:16 9.6 7.4 86 1013.5 25.9 SW 32.0 0.0 0.0
06:17 9.6 7.4 86 1013.3 33.6 SW 33.6 0.0 0.0
06:18 9.6 7.4 86 1013.4 32.0 SW 33.6 0.0 0.0
06:19 9.6 7.4 86 1013.5 17.4 SW 33.6 0.0 0.0
06:20 9.6 7.4 86 1013.4 27.3 S 33.6 0.0 0.0
06:21 9.6 7.4 86 1013.5 22.1 S 33.6 0.0 0.0
06:22 9.6 7.4 86 1013.5 22.8 NW 33.6 0.0 0.0
06:23 9.6 7.4 86 1013.5 23.5 S 33.6 0.0 0.0
06:24 9.6 7.4 86 1013.5 22.1 SW 33.6 0.0 0.0
06:25 9.6 7.4 86 1013.5 19.7 WSW 33.6 0.0 0.0
06:27 9.6 7.4 86 1013.5 31.1 WSW 33.6 0.0 0.0
06:28 9.6 7.4 86 1013.4 30.4 SW 31.1 0.0 0.0
06:29 9.6 7.4 86 1013.7 28.9 SSW 31.1 0.0 0.0
06:30 9.6 7.4 86 1013.5 30.4 NW 31.1 0.0 0.0
06:31 9.6 7.5 87 1013.7 29.8 SW 31.1 0.0 0.0
06:32 9.6 7.5 87 1013.7 29.8 SW 31.1 0.0 0.0
06:33 9.7 7.6 87 1013.8 19.7 WNW 31.1 0.0 0.0
06:34 9.7 7.6 87 1013.6 30.4 SW 31.1 0.0 0.0
06:35 9.7 7.6 87 1013.6 25.9 SW 31.1 0.0 0.0
06:36 9.7 7.6 87 1013.6 24.4 SW 31.1 0.0 0.0
06:37 9.7 7.6 87 1013.6 24.4 N 31.1 0.0 0.0
06:38 9.7 7.6 87 1013.5 28.2 SW 31.1 0.0 0.0
06:39 9.7 7.6 87 1013.4 23.5 SW 31.1 0.0 0.0
06:41 9.7 7.6 87 1013.4 27.3 SW 30.4 0.0 0.0
06:42 9.7 7.6 87 1013.5 27.3 S 30.4 0.0 0.0
06:43 9.7 7.6 87 1013.5 28.2 S 30.4 0.0 0.0
06:44 9.7 7.6 87 1013.5 26.6 WSW 28.2 0.0 0.0
06:45 9.7 7.6 87 1013.8 26.6 SW 28.2 0.0 0.0
06:46 9.7 7.6 87 1013.6 27.3 SW 28.2 0.0 0.0
06:47 9.7 7.6 87 1013.7 25.1 S 28.2 0.0 0.0
06:48 9.7 7.6 87 1013.5 25.9 SW 28.2 0.0 0.0
06:49 9.7 7.6 87 1013.4 38.0 NW 38.0 0.0 0.0
06:50 9.6 7.5 87 1013.7 25.1 S 38.0 0.0 0.0
06:51 9.6 7.5 87 1013.4 27.3 WSW 38.0 0.0 0.0
06:52 9.6 7.5 87 1013.7 22.1 SW 38.0 0.0 0.0
06:53 9.6 7.5 87 1013.4 28.2 NW 38.0 0.0 0.0
06:55 9.6 7.7 88 1013.3 26.6 SW 38.0 0.0 0.0
06:56 9.6 7.7 88 1013.4 27.3 WSW 38.0 0.0 0.0
06:57 9.6 7.7 88 1013.6 19.7 NW 38.0 0.0 0.0
06:58 9.6 7.7 88 1013.5 25.1 SW 38.0 0.0 0.0
06:59 9.5 7.6 88 1013.7 23.5 SW 38.0 0.0 0.0
07:00 9.6 7.7 88 1013.2 30.4 NNW 30.4 0.0 0.0
07:01 9.6 7.7 88 1013.7 22.8 SW 30.4 0.0 0.0
07:02 9.6 7.7 88 1013.4 25.1 SW 30.4 0.0 0.0
07:03 9.6 7.7 88 1013.4 25.1 SW 30.4 0.0 0.0
07:04 9.6 7.9 89 1013.5 22.1 SW 30.4 0.0 0.0
07:05 9.5 7.8 89 1013.5 22.8 SW 30.4 0.0 0.0
07:06 9.6 7.9 89 1013.4 22.8 S 30.4 0.0 0.0
07:07 9.5 7.8 89 1013.5 28.9 SW 30.4 0.0 0.0
07:08 9.5 7.8 89 1013.5 25.9 SW 30.4 0.0 0.0
07:10 9.5 7.8 89 1013.3 19.0 S 28.9 0.0 0.0
07:11 9.5 7.8 89 1013.4 21.3 NW 30.4 0.0 0.0
07:12 9.5 7.8 89 1013.1 32.0 WSW 32.0 0.0 0.0
07:13 9.5 7.9 90 1013.2 21.3 WNW 32.0 0.0 0.0
07:14 9.5 7.9 90 1013.0 22.8 SW 32.0 0.0 0.0
07:15 9.6 8.0 90 1013.1 27.3 SW 32.0 0.0 0.0
07:16 9.5 7.9 90 1013.4 30.4 S 32.0 0.0 0.0
07:17 9.5 7.9 90 1013.1 30.4 S 32.0 0.0 0.0
07:18 9.5 7.9 90 1013.0 30.4 S 32.0 0.0 0.0
07:19 9.5 7.9 90 1013.1 26.6 SW 32.0 0.0 0.0
07:20 9.5 7.9 90 1013.1 25.1 NW 32.0 0.0 0.0
07:21 9.5 8.1 91 1013.1 23.5 SW 32.0 0.0 0.0
07:22 9.5 8.1 91 1013.2 32.0 SW 32.0 0.0 0.0
07:24 9.5 8.1 91 1013.0 22.1 SW 32.0 0.0 0.0
07:25 9.5 8.1 91 1013.0 25.9 SW 32.0 0.0 0.0
07:26 9.5 8.1 91 1013.3 23.5 SW 32.0 0.0 0.0
07:27 9.5 8.1 91 1013.1 28.9 SW 32.0 0.0 0.0
07:28 9.5 8.1 91 1013.1 28.9 SW 32.0 0.0 0.0
07:29 9.5 8.1 91 1013.1 27.3 SW 33.6 0.0 0.0
07:30 9.5 8.1 91 1013.1 28.9 SW 33.6 0.0 0.0
07:31 9.5 8.1 91 1013.3 28.2 W 33.6 0.0 0.0
07:32 9.5 8.3 92 1013.2 22.8 SW 33.6 0.0 0.0
07:33 9.5 8.3 92 1013.0 27.3 SW 33.6 0.0 0.0
07:34 9.5 8.3 92 1013.1 28.9 SW 33.6 0.0 0.0
07:35 9.5 8.3 92 1013.1 32.7 S 33.6 0.0 0.0
07:36 9.5 8.3 92 1013.0 19.7 SW 33.6 0.0 0.0
07:37 9.5 8.3 92 1013.0 26.6 SW 33.6 0.0 0.0
07:39 9.6 8.4 92 1013.0 31.1 SW 32.7 0.0 0.0
07:40 9.6 8.4 92 1013.1 20.6 S 32.7 0.0 0.0
07:41 9.6 8.4 92 1013.2 28.2 SW 32.7 0.0 0.0
07:42 9.6 8.4 92 1012.9 28.9 WNW 32.7 0.0 0.0
07:43 9.4 8.2 92 1013.1 26.6 SW 32.7 0.0 0.0
07:44 9.4 8.2 92 1013.1 26.6 SW 32.7 0.0 0.0
07:45 9.6 8.5 93 1013.0 28.2 SW 32.7 0.0 0.0
07:46 9.6 8.5 93 1013.0 26.6 SW 32.0 0.0 0.0
07:47 9.6 8.5 93 1013.0 29.8 SW 32.0 0.0 0.0
07:48 9.6 8.5 93 1013.1 19.7 NW 32.0 0.0 0.0
07:49 9.6 8.5 93 1013.2 25.9 S 31.1 0.0 0.0
07:50 9.6 8.5 93 1012.9 25.1 S 30.4 0.0 0.0
07:51 9.7 8.6 93 1013.0 26.6 SW 30.4 0.0 0.0
07:52 9.7 8.6 93 1013.1 28.9 SW 30.4 0.0 0.0
07:54 9.7 8.6 93 1012.9 20.6 SW 30.4 0.0 0.0
07:55 9.7 8.6 93 1013.0 29.8 WSW 29.8 0.0 0.0
07:56 9.7 8.6 93 1013.0 31.1 WSW 31.1 0.0 0.1
07:57 9.7 8.6 93 1013.1 25.9 S 31.1 0.8 0.1
07:58 9.7 8.6 93 1013.0 21.3 SW 31.1 0.8 0.1
07:59 9.7 8.6 93 1013.0 27.3 W 31.1 0.8 0.1
08:00 9.7 8.6 93 1013.0 23.5 SW 31.1 0.8 0.1
08:01 9.7 8.6 93 1013.0 28.9 SW 31.1 0.8 0.1
08:02 9.7 8.6 93 1013.0 28.9 SW 31.1 0.0 0.1
08:03 9.8 8.7 93 1013.0 22.8 NW 31.1 0.0 0.1
08:04 9.8 8.9 94 1013.1 25.1 SW 31.1 0.0 0.1
08:05 9.8 8.9 94 1013.0 26.6 W 31.1 0.0 0.1
08:06 9.8 8.9 94 1013.3 19.0 WSW 31.1 0.0 0.1
08:08 9.8 8.9 94 1013.3 22.1 SW 28.9 0.0 0.1
08:09 9.8 8.9 94 1013.0 25.1 SW 28.9 0.0 0.1
08:10 9.8 8.9 94 1013.1 27.3 NNW 28.9 0.0 0.1
08:11 9.8 8.9 94 1013.4 20.6 WSW 28.9 0.0 0.1
08:12 9.8 8.9 94 1013.4 20.6 WSW 28.9 0.0 0.1
08:13 9.8 8.9 94 1013.2 19.0 SW 28.9 0.0 0.1
08:14 9.8 8.9 94 1013.1 36.5 SW 36.5 0.0 0.1
08:15 9.8 8.9 94 1013.3 26.6 SW 36.5 0.0 0.1
08:16 9.9 9.0 94 1013.1 33.6 SW 36.5 0.0 0.1
08:17 9.8 8.9 94 1013.0 26.6 SW 36.5 0.0 0.1
08:18 9.9 9.0 94 1013.0 19.7 SW 36.5 0.0 0.1
08:19 9.9 9.0 94 1013.3 24.4 S 36.5 0.0 0.1
08:20 9.9 9.0 94 1012.9 28.9 WSW 36.5 0.0 0.1
08:22 9.9 9.0 94 1013.1 23.5 S 36.5 0.0 0.1
08:23 9.9 9.0 94 1013.3 27.3 WSW 36.5 0.0 0.1
08:24 9.9 9.0 94 1013.1 21.3 SW 33.6 0.0 0.1
08:25 9.9 9.0 94 1013.1 34.2 WSW 34.2 0.0 0.1
08:26 9.9 9.0 94 1013.0 30.4 SW 34.2 0.0 0.1
08:27 9.9 9.0 94 1013.2 29.8 S 34.2 0.0 0.1
08:28 10.0 9.1 94 1013.0 30.4 SW 34.2 0.0 0.1
08:29 9.7 8.8 94 1013.3 25.9 S 34.2 0.0 0.1
08:30 10.0 9.1 94 1013.1 30.4 SW 34.2 0.0 0.1
08:31 10.0 9.1 94 1013.2 18.3 SW 34.2 0.0 0.1
08:32 10.0 9.1 94 1013.2 32.0 S 34.2 0.0 0.1
08:33 10.0 9.1 94 1013.1 30.4 SW 34.2 0.0 0.1
08:34 10.0 9.1 94 1013.2 28.9 N 34.2 0.0 0.1
08:36 10.0 9.2 95 1013.0 24.4 WNW 33.6 0.0 0.1
08:37 10.1 9.3 95 1013.0 23.5 SW 33.6 0.0 0.1
08:38 10.0 9.2 95 1012.9 27.3 WSW 33.6 0.0 0.1
08:39 10.0 9.2 95 1013.0 24.4 NW 33.6 0.0 0.1
08:40 10.0 9.2 95 1012.9 22.1 WSW 33.6 0.0 0.1
08:41 10.0 9.2 95 1012.9 22.1 WSW 33.6 0.0 0.1
08:42 10.0 9.2 95 1013.1 19.0 NW 33.6 0.0 0.1
08:43 10.0 9.2 95 1012.9 27.3 SW 33.6 0.0 0.1
08:44 10.0 9.2 95 1013.0 25.9 N 33.6 0.0 0.1
08:45 10.0 9.2 95 1013.0 41.8 SW 41.8 0.0 0.1
08:46 10.0 9.2 95 1012.8 32.0 SW 41.8 0.0 0.1
08:47 10.0 9.2 95 1012.8 28.9 WSW 41.8 0.0 0.1
08:48 10.0 9.2 95 1012.9 22.8 WSW 41.8 0.0 0.1
08:49 10.0 9.2 95 1013.0 26.6 SW 41.8 0.0 0.1
08:51 10.0 9.2 95 1012.7 32.7 S 41.8 0.0 0.1
08:52 10.0 9.2 95 1012.8 26.6 NW 41.8 0.0 0.1
08:53 10.1 9.3 95 1013.1 23.5 S 41.8 0.0 0.1
08:54 10.1 9.3 95 1013.3 29.8 SW 41.8 0.0 0.1
08:55 10.1 9.3 95 1013.3 29.8 SW 32.7 0.0 0.1
08:56 10.1 9.3 95 1013.1 27.3 SW 32.7 0.0 0.1
08:57 10.1 9.3 95 1013.2 20.6 S 32.7 0.0 0.1
08:58 10.1 9.3 95 1013.2 25.9 SW 32.7 0.0 0.1
08:59 10.1 9.3 95 1013.0 27.3 SW 32.7 0.0 0.1
09:00 10.1 9.3 95 1013.1 29.8 WSW 32.7 0.0 0.1
09:01 10.1 9.3 95 1013.1 30.4 NW 32.7 0.0 0.1
09:02 10.1 9.3 95 1012.9 30.4 SW 31.1 0.0 0.1
09:03 10.1 9.3 95 1013.0 23.5 SW 31.1 0.0 0.1
09:04 10.1 9.3 95 1012.9 30.4 SW 31.1 0.0 0.1
09:05 10.1 9.3 95 1013.0 30.4 SW 31.1 0.0 0.1
09:06 10.1 9.5 96 1013.1 33.6 NW 33.6 0.0 0.1
09:08 10.1 9.5 96 1013.4 27.3 SW 33.6 0.0 0.1
09:09 10.1 9.5 96 1013.0 25.1 N 33.6 0.0 0.1
09:10 10.1 9.5 96 1013.0 22.8 NW 33.6 0.0 0.1
09:11 10.1 9.5 96 1013.0 22.8 NW 33.6 0.0 0.1
09:12 10.1 9.5 96 1013.2 20.6 SW 33.6 0.0 0.1
09:13 10.1 9.5 96 1013.0 28.2 W 33.6 0.0 0.1
09:14 10.1 9.5 96 1013.0 32.0 SW 33.6 0.8 0.1
09:15 10.1 9.5 96 1013.1 25.1 SW 33.6 0.8 0.1
09:16 10.2 9.6 96 1013.0 28.2 SW 33.6 0.8 0.1
09:17 10.2 9.6 96 1013.0 19.7 SW 32.0 0.8 0.1
09:18 10.2 9.6 96 1013.2 23.5 SW 32.0 0.8 0.1
09:19 10.2 9.6 96 1012.9 25.9 SW 32.0 0.0 0.1
09:20 10.2 9.6 96 1012.9 38.7 SW 38.7 0.0 0.1
09:22 10.2 9.6 96 1012.7 23.5 SW 38.7 0.0 0.1
09:23 10.2 9.6 96 1013.1 27.3 SW 38.7 0.0 0.1
09:24 10.2 9.6 96 1013.2 25.1 SW 38.7 0.0 0.1
09:25 10.2 9.6 96 1013.2 20.6 SW 38.7 0.0 0.1
09:26 10.2 9.6 96 1013.0 23.5 NNW 38.7 0.0 0.1
09:27 10.2 9.6 96 1013.0 30.4 W 38.7 0.0 0.1
09:28 10.0 9.4 96 1013.1 22.8 SW 38.7 0.0 0.1
09:29 10.2 9.6 96 1013.2 34.2 WSW 38.7 0.0 0.1
09:30 10.2 9.6 96 1013.2 26.6 SW 38.7 0.0 0.1
09:31 10.2 9.6 96 1013.3 25.1 SW 34.2 0.0 0.1
09:32 10.3 9.7 96 1013.1 30.4 SW 34.2 0.0 0.1
09:33 10.3 9.7 96 1013.1 27.3 SW 34.2 0.0 0.1
09:34 10.3 9.7 96 1013.2 25.1 SW 34.2 0.0 0.1
09:36 10.3 9.7 96 1013.3 37.4 WNW 37.4 0.0 0.1
09:37 10.3 9.7 96 1012.8 31.1 SW 37.4 0.0 0.1
09:38 10.3 9.7 96 1013.1 29.8 WNW 37.4 0.0 0.2
09:39 10.3 9.8 97 1013.2 25.9 SW 37.4 0.8 0.2
09:40 10.3 9.8 97 1013.2 25.9 SW 37.4 0.8 0.2
09:41 10.3 9.7 96 1013.4 25.1 SW 37.4 0.8 0.2
09:42 10.3 9.8 97 1013.0 31.1 WSW 37.4 0.8 0.2
09:43 10.3 9.8 97 1013.3 21.3 S 37.4 0.8 0.2
09:44 10.3 9.8 97 1013.3 26.6 SW 37.4 0.0 0.2
09:45 10.4 9.9 97 1013.2 30.4 SW 37.4 0.0 0.2
09:46 10.3 9.8 97 1012.8 27.3 SW 37.4 0.0 0.2
09:47 10.4 9.9 97 1013.1 38.0 SW 38.0 0.0 0.2
09:48 10.4 9.9 97 1013.3 27.3 SW 38.0 0.0 0.2
09:50 10.4 9.9 97 1013.2 26.6 SW 38.0 0.0 0.2
09:51 10.4 9.9 97 1013.2 24.4 S 38.0 0.0 0.2
09:52 10.4 9.9 97 1013.1 23.5 SW 38.0 0.0 0.2
09:53 10.4 9.9 97 1013.1 25.1 SW 38.0 0.0 0.2
09:54 10.4 9.9 97 1013.1 22.1 SW 38.0 0.0 0.2
09:55 10.4 9.9 97 1012.8 24.4 SW 38.0 0.0 0.2
09:56 10.4 9.9 97 1013.0 31.1 SW 38.0 0.0 0.2
09:57 10.4 9.9 97 1013.3 25.9 NNW 38.0 0.0 0.2
09:58 10.4 9.9 97 1013.2 27.3 NNW 31.1 0.0 0.2
09:59 10.4 9.9 97 1013.1 32.0 W 32.0 0.0 0.2
10:00 10.4 9.9 97 1013.1 23.5 S 32.0 0.0 0.3
10:01 10.4 9.9 97 1012.5 32.7 W 32.7 0.8 0.3
10:02 10.4 9.9 97 1013.3 32.7 NNW 32.7 0.8 0.3
10:03 10.4 9.9 97 1012.9 31.1 SW 32.7 0.8 0.3
10:05 10.4 9.9 97 1013.1 33.6 WNW 33.6 0.8 0.3
10:06 10.4 9.9 97 1012.8 28.2 SW 33.6 0.0 0.3
10:07 10.6 10.1 97 1013.3 23.5 S 33.6 0.0 0.3
10:08 10.6 10.1 97 1013.3 23.5 S 33.6 0.0 0.3
10:09 10.5 10.0 97 1013.2 27.3 SW 33.6 0.0 0.3
10:10 10.4 9.9 97 1013.0 31.1 SW 33.6 0.0 0.3
10:11 10.5 10.0 97 1013.1 26.6 SW 33.6 0.0 0.3
10:12 10.4 9.9 97 1013.2 28.9 SW 33.6 0.0 0.3
10:13 10.5 10.0 97 1013.3 25.9 NW 33.6 0.0 0.3
10:14 10.4 9.9 97 1013.4 19.7 SW 33.6 0.0 0.3
10:15 10.5 10.0 97 1013.1 25.9 SW 33.6 0.0 0.3
10:16 10.5 10.0 97 1013.3 27.3 SW 31.1 0.0 0.3
10:17 10.5 10.0 97 1013.2 20.6 WNW 31.1 0.0 0.3
10:19 10.5 10.0 97 1013.2 27.3 SW 34.2 0.0 0.3
10:20 10.5 10.0 97 1013.1 30.4 WSW 34.2 0.0 0.3
10:21 10.5 10.0 97 1013.2 28.9 W 34.2 0.0 0.3
10:22 10.5 10.0 97 1013.0 34.9 NW 34.9 0.0 0.3
10:23 10.5 10.0 97 1013.0 34.9 NW 34.9 0.0 0.3
10:24 10.5 10.0 97 1013.0 25.1 SW 34.9 0.0 0.3
10:25 10.5 10.0 97 1013.2 27.3 W 34.9 0.0 0.3
10:26 10.5 10.0 97 1013.3 23.5 NNW 34.9 0.0 0.3
10:27 10.6 10.1 97 1013.2 31.1 SW 34.9 0.0 0.3
10:28 10.5 10.0 97 1013.2 28.2 SW 34.9 0.0 0.3
10:29 10.6 10.1 97 1013.4 21.3 NW 34.9 0.0 0.3
10:30 10.6 10.3 98 1013.4 24.4 S 34.9 0.0 0.3
10:31 10.6 10.1 97 1013.2 25.9 SW 34.9 0.0 0.3
10:32 10.6 10.3 98 1013.2 25.1 WSW 34.9 0.0 0.3
10:34 10.6 10.3 98 1013.3 20.6 W 31.1 0.0 0.3
10:35 10.6 10.3 98 1013.1 28.2 SW 31.1 0.0 0.3
10:36 10.6 10.3 98 1013.3 24.4 SW 31.1 0.0 0.3
10:37 10.6 10.3 98 1013.2 32.0 WSW 32.0 0.0 0.3
10:38 10.6 10.3 98 1013.2 28.9 SW 32.0 0.0 0.3
10:39 10.6 10.3 98 1013.4 26.6 NW 32.0 0.0 0.3
10:40 10.6 10.3 98 1013.3 26.6 SW 32.0 0.0 0.3
10:41 10.6 10.3 98 1013.4 21.3 WNW 32.0 0.0 0.3
10:42 10.6 10.3 98 1013.2 21.3 SW 32.0 0.0 0.3
10:43 10.6 10.3 98 1013.3 22.8 SW 32.0 0.0 0.3
10:44 10.7 10.4 98 1013.5 19.0 SW 32.0 0.0 0.3
10:45 10.7 10.4 98 1013.4 20.6 SW 32.0 0.0 0.3
10:46 10.7 10.4 98 1013.4 23.5 SW 32.0 0.0 0.3
10:47 10.7 10.4 98 1013.3 25.1 SW 28.9 0.0 0.3
10:49 10.7 10.4 98 1013.6 23.5 SW 29.8 0.0 0.3
10:50 10.7 10.4 98 1013.5 24.4 NW 29.8 0.0 0.3
10:51 10.7 10.4 98 1013.5 25.1 NW 29.8 0.0 0.3
10:52 10.7 10.4 98 1013.4 28.2 WNW 29.8 0.0 0.3
10:53 10.7 10.4 98 1013.4 26.6 SW 29.8 0.0 0.3
10:54 10.7 10.4 98 1013.7 22.1 SW 29.8 0.0 0.3
10:55 10.7 10.4 98 1013.5 23.5 W 29.8 0.0 0.3
10:56 10.7 10.4 98 1013.4 24.4 N 30.4 0.0 0.3
10:57 10.7 10.4 98 1013.4 24.4 NNW 30.4 0.0 0.3
10:58 10.7 10.4 98 1013.5 19.0 S 30.4 0.0 0.3
10:59 10.7 10.4 98 1013.3 28.9 SW 30.4 0.0 0.3
11:00 10.7 10.4 98 1013.5 32.0 WSW 32.0 0.0 0.3
11:01 10.7 10.4 98 1013.4 28.9 SW 32.0 0.8 0.3
11:03 10.7 10.4 98 1013.4 29.8 SW 32.0 0.8 0.3
11:04 10.7 10.4 98 1013.5 25.1 S 32.0 0.8 0.3
11:05 10.7 10.4 98 1013.5 25.1 S 32.0 0.8 0.3
11:06 10.7 10.4 98 1013.3 26.6 NW 32.0 0.0 0.3
11:07 10.7 10.4 98 1013.3 25.9 WNW 32.0 0.0 0.3
11:08 10.7 10.4 98 1013.4 33.6 NW 33.6 0.0 0.3
11:09 10.7 10.4 98 1013.4 20.6 NW 33.6 0.0 0.3
11:10 10.7 10.4 98 1013.5 22.8 SW 33.6 0.0 0.3
11:11 10.7 10.4 98 1013.5 25.1 N 33.6 0.0 0.3
11:12 10.8 10.5 98 1013.4 28.9 WNW 33.6 0.0 0.3
11:13 10.8 10.5 98 1013.2 24.4 SW 33.6 0.0 0.3
11:14 10.8 10.5 98 1013.5 22.8 SW 33.6 0.0 0.3
11:15 10.8 10.5 98 1013.5 28.9 SW 33.6 0.0 0.3
11:16 10.8 10.5 98 1013.4 23.5 SW 33.6 0.0 0.3
11:17 10.8 10.5 98 1013.7 23.5 SW 33.6 0.0 0.3
11:18 10.8 10.5 98 1013.5 25.1 WSW 32.0 0.0 0.3
11:20 10.8 10.5 98 1013.4 29.8 SW 32.0 0.0 0.3
11:21 10.8 10.5 98 1013.3 25.1 SW 32.0 0.0 0.3
11:22 10.8 10.5 98 1013.5 22.8 W 29.8 0.0 0.3
11:23 10.8 10.5 98 1013.5 22.8 W 29.8 0.0 0.3
11:24 10.8 10.5 98 1013.4 19.7 SW 29.8 0.0 0.3
11:25 10.8 10.5 98 1013.3 22.8 SW 29.8 0.0 0.3
11:26 10.9 10.6 98 1013.6 27.3 SW 29.8 0.0 0.3
11:27 10.8 10.5 98 1013.6 19.7 SW 29.8 0.0 0.3
11:28 10.9 10.6 98 1013.5 19.7 S 29.8 0.0 0.3
11:29 10.9 10.8 99 1013.5 28.9 N 29.8 0.0 0.3
11:30 10.9 10.6 98 1013.5 22.8 NW 28.9 0.0 0.3
11:31 10.9 10.8 99 1013.5 30.4 W 30.4 0.0 0.3
11:32 10.9 10.6 98 1013.5 25.1 W 30.4 0.0 0.3
11:34 10.9 10.6 98 1013.6 23.5 NW 30.4 0.0 0.3
11:35 10.9 10.6 98 1013.5 28.9 SW 30.4 0.0 0.3
11:36 10.9 10.6 98 1013.4 27.3 SW 30.4 0.0 0.3
11:37 10.9 10.6 98 1013.7 18.3 SW 30.4 0.0 0.3
11:38 10.9 10.8 99 1013.6 21.3 S 30.4 0.0 0.3
11:39 10.9 10.6 98 1013.6 32.0 SW 32.0 0.0 0.3
11:40 10.9 10.8 99 1013.6 17.4 SW 32.0 0.0 0.3
11:41 10.9 10.8 99 1013.6 23.5 SW 32.0 0.0 0.3
11:42 10.9 10.8 99 1013.4 30.4 SW 32.0 0.0 0.3
11:43 10.9 10.8 99 1013.5 24.4 W 32.0 0.0 0.3
11:44 11.0 10.9 99 1013.6 23.5 SW 32.0 0.0 0.3
11:45 11.0 10.9 99 1013.5 25.1 SW 32.0 0.0 0.3
11:46 11.0 10.9 99 1013.6 24.4 SW 32.0 0.0 0.3
11:47 11.0 10.9 99 1013.6 24.4 SW 32.0 0.0 0.3
11:49 11.0 10.9 99 1013.7 27.3 SW 30.4 0.0 0.3
11:50 11.0 10.9 99 1013.6 26.6 WSW 30.4 0.0 0.3
11:51 11.0 10.9 99 1013.6 26.6 WSW 30.4 0.0 0.3
11:52 11.0 10.9 99 1013.8 22.1 SW 30.4 0.0 0.3
11:53 11.0 10.9 99 1013.8 22.1 SW 27.3 0.0 0.3
11:54 11.0 10.9 99 1013.6 22.1 SW 27.3 0.0 0.3
11:55 11.0 10.9 99 1013.5 25.9 SW 27.3 0.0 0.3
11:56 11.0 10.9 99 1013.8 23.5 SW 27.3 0.0 0.3
11:57 11.0 10.9 99 1013.7 28.2 W 28.2 0.0 0.3
11:58 11.0 10.9 99 1013.6 26.6 W 28.2 0.0 0.3
11:59 11.0 10.9 99 1013.7 27.3 SW 34.9 0.0 0.3
12:00 11.1 11.0 99 1013.7 24.4 SW 34.9 0.0 0.3
12:01 11.1 11.0 99 1013.7 28.9 SW 34.9 0.0 0.3
12:03 11.1 11.0 99 1013.6 31.1 SW 34.9 0.0 0.3
12:04 11.1 11.0 99 1013.6 30.4 WSW 34.9 0.0 0.4
12:05 11.1 11.0 99 1013.6 28.9 SW 34.9 0.8 0.4
12:06 11.1 11.0 99 1013.6 28.9 SW 34.9 0.8 0.4
12:07 11.1 11.0 99 1013.9 20.6 NNW 34.9 0.8 0.4
12:08 11.1 11.0 99 1013.7 22.8 NNW 34.9 0.8 0.4
12:09 11.1 11.0 99 1013.9 22.1 N 31.1 0.8 0.4
12:10 11.1 11.0 99 1014.0 23.5 SW 31.1 0.0 0.4
12:11 11.1 11.0 99 1013.9 32.0 SW 32.0 0.0 0.4
12:12 11.1 11.0 99 1014.0 23.5 SW 32.0 0.0 0.4
12:13 11.1 11.0 99 1014.0 23.5 SW 32.0 0.0 0.4
12:14 11.1 11.0 99 1013.9 21.3 NW 32.0 0.0 0.4
12:15 11.1 11.0 99 1014.0 29.8 SW 32.0 0.0 0.4
12:16 11.1 11.0 99 1013.8 25.1 SW 32.0 0.0 0.4
12:18 11.1 11.0 99 1014.0 32.0 NW 32.0 0.0 0.4
12:19 11.1 11.0 99 1013.8 33.6 SW 33.6 0.0 0.4
12:20 11.1 11.0 99 1013.8 35.8 SW 35.8 0.0 0.4
12:21 11.1 11.0 99 1014.0 27.3 SW 35.8 0.0 0.4
12:22 11.1 11.0 99 1014.1 30.4 NW 35.8 0.0 0.4
12:23 11.1 11.0 99 1013.6 28.2 SW 35.8 0.0 0.4
12:24 11.1 11.0 99 1013.9 27.3 NW 35.8 0.0 0.4
12:25 11.1 11.0 99 1013.9 24.4 SSW 35.8 0.0 0.4
12:26 11.2 11.1 99 1013.6 31.1 SW 35.8 0.0 0.4
12:27 11.2 11.1 99 1013.9 23.5 SW 35.8 0.0 0.4
12:28 11.1 11.0 99 1013.9 19.7 W 35.8 0.0 0.4
12:29 11.2 11.1 99 1014.0 22.1 NW 35.8 0.0 0.4
12:30 11.1 11.0 99 1014.0 22.8 SW 31.1 0.0 0.4
12:31 11.2 11.1 99 1013.7 18.3 NW 31.1 0.0 0.4
12:32 11.2 11.1 99 1014.2 25.1 SW 31.1 0.0 0.4
12:34 11.2 11.1 99 1014.0 18.3 SW 31.1 0.0 0.4
12:35 11.2 11.1 99 1014.0 29.8 WSW 31.1 0.0 0.4
12:36 11.2 11.1 99 1014.0 28.2 SW 31.1 0.0 0.4
12:37 11.2 11.1 99 1014.0 23.5 SW 29.8 0.0 0.4
12:38 11.2 11.1 99 1014.0 19.7 NW 29.8 0.0 0.4
12:39 11.2 11.1 99 1013.9 26.6 SW 29.8 0.0 0.4
12:40 11.2 11.1 99 1013.9 25.9 NW 29.8 0.0 0.4
12:41 11.2 11.1 99 1014.1 28.9 WSW 29.8 0.0 0.4
12:42 11.2 11.1 99 1013.8 26.6 SW 29.8 0.0 0.4
12:43 11.2 11.1 99 1014.1 27.3 SW 29.8 0.0 0.4
12:44 11.2 11.1 99 1014.1 20.6 WSW 29.8 0.0 0.4
12:45 11.2 11.1 99 1014.0 28.2 WSW 29.8 0.0 0.4
12:46 11.2 10.9 98 1014.0 28.9 NW 28.9 0.0 0.4
12:47 11.2 10.9 98 1014.0 25.1 SW 28.9 0.0 0.4
12:49 11.2 10.9 98 1014.2 26.6 SW 28.9 0.0 0.4
12:50 11.2 10.9 98 1014.0 19.7 W 28.9 0.0 0.4
12:51 11.2 10.9 98 1014.0 19.7 W 28.9 0.0 0.4
12:52 11.2 10.9 98 1014.1 23.5 SW 28.9 0.0 0.4
12:53 11.2 10.9 98 1013.9 22.8 SW 28.9 0.0 0.4
12:54 11.2 10.9 98 1014.1 25.9 SW 28.9 0.0 0.4
12:55 11.2 10.9 98 1014.0 25.1 N 28.9 0.0 0.4
12:56 11.2 10.9 98 1014.1 19.7 W 28.9 0.0 0.4
12:57 11.2 10.9 98 1013.9 22.8 W 27.3 0.0 0.4
12:58 11.2 10.9 98 1014.1 22.8 SW 27.3 0.0 0.4
12:59 11.2 10.9 98 1014.6 25.1 SW 26.6 0.0 0.4
13:00 11.2 10.9 98 1014.6 30.4 SW 30.4 0.0 0.4
13:01 11.2 10.9 98 1014.1 19.7 SW 30.4 0.0 0.4
13:02 11.2 10.9 98 1013.9 25.1 SW 30.4 0.0 0.4
13:04 11.2 10.9 98 1014.0 28.9 SW 30.4 0.0 0.4
13:05 11.1 10.8 98 1013.9 25.1 NW 30.4 0.0 0.4
13:06 11.1 10.8 98 1013.9 23.5 S 30.4 0.0 0.4
13:07 11.1 10.8 98 1014.0 23.5 WSW 30.4 0.0 0.4
13:08 11.1 10.8 98 1014.0 17.4 SW 30.4 0.0 0.4
13:09 11.1 10.8 98 1013.9 25.9 SW 30.4 0.0 0.4
13:10 11.1 10.8 98 1013.8 23.5 SW 30.4 0.0 0.4
13:11 11.1 10.8 98 1013.9 24.4 SW 28.9 0.0 0.4
13:12 11.1 10.8 98 1013.9 22.8 NNW 28.9 0.0 0.4
13:13 11.1 10.8 98 1013.9 23.5 SW 28.9 0.0 0.4
13:14 11.1 10.8 98 1014.0 21.3 NW 28.9 0.0 0.4
13:15 11.1 10.8 98 1014.0 18.3 NW 26.6 0.0 0.4
13:16 11.1 10.8 98 1014.0 26.6 NW 26.6 0.0 0.4
13:17 11.1 10.8 98 1013.9 19.7 SW 26.6 0.0 0.4
13:18 11.1 10.8 98 1013.9 22.1 SW 26.6 0.0 0.4
13:20 11.2 10.9 98 1014.0 24.4 SW 26.6 0.0 0.4
13:21 11.1 10.8 98 1014.1 18.3 SW 26.6 0.0 0.4
13:22 11.1 10.8 98 1014.1 18.3 SW 26.6 0.0 0.4
13:23 11.1 11.0 99 1014.0 22.8 W 26.6 0.0 0.4
13:24 11.1 10.8 98 1014.2 19.7 S 26.6 0.0 0.4
13:25 11.1 10.8 98 1014.0 21.3 NW 26.6 0.0 0.4
13:26 11.1 10.8 98 1014.0 23.5 SW 26.6 0.0 0.4
13:27 11.1 10.8 98 1014.2 25.9 SW 25.9 0.0 0.4
13:28 11.2 10.9 98 1014.1 23.5 SW 25.9 0.0 0.4
13:29 11.1 11.0 99 1014.0 19.0 SW 25.9 0.0 0.4
13:30 11.1 10.8 98 1014.2 16.8 SW 25.9 0.0 0.4
13:31 11.1 10.8 98 1014.0 23.5 SW 25.9 0.0 0.4
13:32 11.1 10.8 98 1014.2 25.1 SW 25.9 0.0 0.4
13:33 11.3 11.0 98 1014.2 23.5 W 25.9 0.0 0.4
13:35 11.2 11.1 99 1014.1 22.8 SW 25.9 0.0 0.4
13:36 11.1 11.0 99 1014.1 25.9 NW 25.9 0.0 0.4
13:37 11.1 11.0 99 1014.0 22.8 SW 25.9 0.0 0.4
13:38 11.1 11.0 99 1014.2 25.9 SW 25.9 0.0 0.4
13:39 11.1 11.0 99 1014.1 24.4 SW 25.9 0.0 0.4
13:40 11.1 11.0 99 1014.2 35.8 WSW 35.8 0.0 0.4
13:41 11.1 11.0 99 1014.3 28.2 SW 35.8 0.0 0.4
13:42 11.1 11.0 99 1014.1 26.6 SW 35.8 0.0 0.4
13:43 11.1 11.0 99 1014.1 20.6 SW 35.8 0.0 0.4
13:44 11.1 11.0 99 1014.3 24.4 W 35.8 0.0 0.4
13:45 11.1 11.0 99 1014.1 26.6 SW 35.8 0.0 0.4
13:46 11.1 11.0 99 1014.3 25.9 WNW 35.8 0.0 0.4
13:47 11.1 11.0 99 1014.2 30.4 SW 35.8 0.0 0.4
13:49 11.1 11.0 99 1014.3 22.1 SW 35.8 0.0 0.4
13:50 11.1 11.0 99 1014.1 25.9 SW 30.4 0.0 0.4
13:51 11.1 11.0 99 1014.3 21.3 NW 30.4 0.0 0.4
13:52 11.1 11.0 99 1014.2 27.3 SW 30.4 0.0 0.4
13:53 11.1 11.0 99 1014.4 34.9 SW 34.9 0.0 0.4
13:54 11.1 11.0 99 1014.2 26.6 SW 34.9 0.0 0.4
13:55 11.1 11.0 99 1014.2 16.8 SW 34.9 0.0 0.4
13:56 11.2 11.1 99 1014.4 19.0 SW 34.9 0.0 0.4
13:57 11.1 11.0 99 1014.2 22.1 SW 34.9 0.0 0.4
13:58 11.1 11.0 99 1014.3 23.5 WNW 34.9 0.0 0.4
13:59 11.1 11.0 99 1014.2 31.1 SW 34.9 0.0 0.4
14:00 11.1 11.0 99 1014.1 29.8 WNW 34.9 0.0 0.4
14:01 11.1 11.0 99 1014.1 26.6 WSW 34.9 0.0 0.4
14:02 11.1 11.0 99 1014.4 20.6 SW 34.9 0.0 0.4
14:04 11.1 11.0 99 1014.1 28.2 SW 31.1 0.0 0.4
14:05 11.1 11.0 99 1014.2 28.2 SW 31.1 0.0 0.4
14:06 11.0 10.9 99 1014.0 29.8 S 31.1 0.0 0.4
14:07 11.1 11.0 99 1014.1 26.6 WNW 31.1 0.0 0.4
14:08 11.0 10.9 99 1014.1 22.8 SW 31.1 0.0 0.4
14:09 11.1 11.0 99 1014.3 25.1 SW 31.1 0.0 0.4
14:10 11.1 11.0 99 1014.1 31.1 SW 31.1 0.0 0.4
14:11 11.1 11.0 99 1014.0 29.8 SW 31.1 0.0 0.4
14:12 11.0 10.9 99 1014.2 25.1 SW 31.1 0.0 0.4
14:13 11.0 10.9 99 1014.2 22.8 SW 31.1 0.0 0.4
14:14 11.0 10.9 99 1014.2 22.8 SW 31.1 0.0 0.4
14:15 11.1 11.0 99 1014.1 16.8 W 31.1 0.0 0.4
14:16 11.1 11.0 99 1014.1 22.1 SW 31.1 0.0 0.4
14:17 11.1 11.0 99 1014.1 25.1 WNW 31.1 0.0 0.4
14:18 11.1 11.0 99 1013.9 25.9 SW 31.1 0.0 0.4
14:20 11.1 11.0 99 1014.0 28.2 SW 31.1 0.0 0.4
14:21 11.1 11.0 99 1014.1 25.9 NW 30.4 0.0 0.4
14:22 11.1 11.0 99 1014.0 26.6 WSW 30.4 0.0 0.4
14:23 11.1 11.0 99 1014.1 20.6 NW 30.4 0.0 0.4
14:24 11.0 10.9 99 1014.2 27.3 W 30.4 0.0 0.4
14:25 11.0 10.9 99 1014.1 25.9 SW 30.4 0.0 0.4
14:26 11.0 10.9 99 1014.2 23.5 SW 30.4 0.0 0.4
14:27 11.0 10.9 99 1014.2 22.1 SW 30.4 0.0 0.4
14:28 11.0 10.9 99 1014.1 22.1 W 30.4 0.0 0.4
14:29 11.0 10.9 99 1014.2 19.7 NW 28.2 0.0 0.4
14:30 11.0 10.9 99 1014.3 17.4 S 28.2 0.0 0.4
14:31 11.0 10.9 99 1014.3 22.1 NW 27.3 0.0 0.4
14:32 11.0 10.9 99 1014.4 23.5 WNW 27.3 0.0 0.4
14:33 11.0 10.9 99 1014.4 29.8 SW 29.8 0.0 0.4
14:35 11.0 10.9 99 1014.3 16.8 W 29.8 0.0 0.4
14:36 11.0 10.9 99 1014.2 21.3 WNW 29.8 0.0 0.4
14:37 11.0 10.9 99 1014.4 22.1 W 29.8 0.0 0.4
14:38 11.0 10.9 99 1014.3 22.8 SW 29.8 0.0 0.4
14:39 11.0 10.9 99 1014.0 21.3 SW 29.8 0.0 0.4
14:41 11.0 10.9 99 1014.3 25.9 SW 34.9 0.0 0.4
14:43 11.0 10.9 99 1014.4 19.0 W 34.9 0.0 0.4
14:44 11.0 10.9 99 1014.3 29.8 S 34.9 0.0 0.4
14:46 11.2 11.1 99 1014.3 25.9 SW 34.9 0.0 0.4
14:47 11.0 10.9 99 1014.2 26.6 WSW 34.9 0.0 0.4
14:48 11.0 10.9 99 1014.3 25.1 SW 34.9 0.0 0.4
14:49 11.0 10.9 99 1014.1 20.6 WSW 34.9 0.0 0.4
14:50 11.0 10.9 99 1014.3 15.2 SW 29.8 0.0 0.4
14:51 11.0 10.9 99 1014.4 17.4 W 29.8 0.0 0.4
14:52 11.0 10.9 99 1014.4 22.8 SW 29.8 0.0 0.4
14:53 11.0 10.9 99 1014.4 22.8 SW 29.8 0.0 0.4
14:54 11.0 10.9 99 1014.2 30.4 N 30.4 0.0 0.4
14:55 11.0 10.9 99 1014.4 23.5 S 30.4 0.0 0.4
14:56 11.0 10.9 99 1014.3 24.4 WNW 30.4 0.0 0.4
14:57 11.0 10.9 99 1014.5 21.3 SW 30.4 0.0 0.4
14:58 11.0 10.9 99 1014.2 37.4 WSW 37.4 0.0 0.4
15:00 11.0 10.9 99 1014.3 22.1 WSW 37.4 0.0 0.4
15:01 11.0 10.9 99 1014.3 22.1 WSW 37.4 0.0 0.4
15:02 11.0 10.9 99 1014.5 23.5 SW 37.4 0.0 0.4
15:03 11.0 10.9 99 1014.4 30.4 NW 37.4 0.0 0.4
15:04 11.0 10.9 99 1014.5 20.6 SW 37.4 0.0 0.4
15:05 11.0 10.9 99 1014.3 20.6 SW 37.4 0.0 0.4
15:06 11.0 10.9 99 1014.4 19.7 WSW 37.4 0.0 0.4
15:07 11.0 10.9 99 1014.5 25.9 W 37.4 0.0 0.4
15:08 11.0 10.9 99 1014.3 23.5 W 37.4 0.0 0.4
15:09 11.0 10.9 99 1014.3 22.1 NW 30.4 0.0 0.4
15:10 11.0 10.9 99 1014.2 21.3 NW 30.4 0.0 0.4
15:11 11.0 10.9 99 1014.3 20.6 SW 30.4 0.0 0.4
15:12 11.0 10.9 99 1014.4 26.6 SW 30.4 0.0 0.4
15:13 11.0 10.9 99 1014.4 26.6 SW 30.4 0.0 0.4
15:14 11.0 10.9 99 1014.3 26.6 SW 26.6 0.0 0.4
15:15 11.0 10.9 99 1014.3 25.9 SW 26.6 0.0 0.4
15:16 11.0 10.9 99 1014.3 25.1 NNW 26.6 0.0 0.4
15:17 11.0 10.9 99 1014.4 23.5 W 26.6 0.0 0.4
15:18 11.0 10.9 99 1014.4 17.4 NW 26.6 0.0 0.4
15:19 11.0 10.9 99 1014.3 19.7 SW 26.6 0.0 0.4
15:21 11.0 10.9 99 1014.4 19.0 SW 26.6 0.0 0.4
15:22 11.0 10.9 99 1014.3 23.5 SW 26.6 0.0 0.4
15:23 11.0 10.9 99 1014.4 22.1 W 26.6 0.0 0.4
15:24 11.0 10.9 99 1014.3 25.9 SW 26.6 0.0 0.4
15:25 11.1 11.0 99 1014.5 23.5 SW 25.9 0.0 0.4
15:26 11.1 11.0 99 1014.3 25.9 SW 25.9 0.0 0.4
15:27 11.2 11.1 99 1014.3 24.4 WSW 25.9 0.0 0.4
15:28 11.1 11.0 99 1014.5 17.4 SW 25.9 0.0 0.4
15:29 11.1 11.0 99 1014.3 18.3 SW 25.9 0.0 0.4
15:30 11.0 10.9 99 1014.3 19.7 SW 25.9 0.0 0.4
15:31 11.1 11.0 99 1014.5 25.1 SW 25.9 0.0 0.4
15:32 11.1 11.0 99 1014.4 23.5 SW 25.9 0.0 0.4
15:33 11.1 11.0 99 1014.5 22.8 SW 25.9 0.0 0.4
15:34 11.1 11.0 99 1014.3 28.9 SW 28.9 0.8 0.4
15:36 11.1 11.0 99 1014.4 20.6 WSW 28.9 0.8 0.4
15:37 11.0 10.9 99 1014.4 21.3 NW 28.9 0.8 0.4
15:38 11.1 11.0 99 1014.4 22.8 SW 28.9 0.8 0.4
15:39 11.1 11.0 99 1014.5 23.5 SW 28.9 0.0 0.4
15:40 11.1 11.0 99 1014.5 22.1 N 28.9 0.0 0.4
15:41 11.0 10.9 99 1014.5 21.3 WNW 28.9 0.0 0.4
15:42 10.9 10.8 99 1014.5 25.9 S 28.9 0.0 0.4
15:43 11.0 10.9 99 1014.5 22.1 WSW 28.9 0.0 0.4
15:44 11.0 10.9 99 1014.6 19.7 WSW 28.9 0.0 0.4
15:45 11.0 10.9 99 1014.6 17.4 NW 25.9 0.0 0.4
15:46 11.0 10.9 99 1014.5 23.5 W 25.9 0.0 0.4
15:47 11.0 10.9 99 1014.5 23.5 SW 25.9 0.0 0.4
15:48 11.0 10.9 99 1014.4 30.4 S 30.4 0.0 0.4
15:49 11.0 10.9 99 1014.5 27.3 NW 30.4 0.0 0.4
15:51 11.0 10.9 99 1014.5 25.1 SW 30.4 0.0 0.4
15:52 11.0 10.9 99 1014.5 20.6 NW 30.4 0.0 0.4
15:53 11.0 10.9 99 1014.4 22.1 NW 30.4 0.0 0.4
15:54 11.0 10.9 99 1014.3 27.3 SW 30.4 0.0 0.4
15:55 11.0 10.9 99 1014.2 26.6 NW 30.4 0.0 0.4
15:56 11.0 10.9 99 1014.5 22.8 SW 30.4 0.0 0.4
15:57 10.9 10.8 99 1014.5 20.6 SW 30.4 0.0 0.4
15:58 11.0 10.9 99 1014.5 24.4 SW 28.2 0.0 0.4
15:59 11.0 10.9 99 1014.5 25.1 SW 28.2 0.0 0.4
16:00 11.0 10.9 99 1014.5 24.4 SW 28.2 0.0 0.4
16:01 11.0 10.9 99 1014.5 20.6 S 28.2 0.0 0.4
16:02 11.0 10.9 99 1014.5 18.3 SW 28.2 0.0 0.4
16:03 11.0 10.9 99 1014.4 17.4 SW 27.3 0.0 0.4
16:04 11.0 10.9 99 1014.6 15.9 WSW 27.3 0.0 0.4
16:05 11.0 10.9 99 1014.5 23.5 WSW 26.6 0.0 0.4
16:07 11.0 10.9 99 1014.5 22.1 W 25.1 0.0 0.4
16:08 11.0 10.9 99 1014.7 21.3 SW 26.6 0.0 0.4
16:09 11.0 10.9 99 1014.5 25.9 SW 26.6 0.0 0.4
16:10 11.0 10.9 99 1014.5 27.3 NW 27.3 0.0 0.4
16:11 11.0 10.9 99 1014.5 19.0 NNW 27.3 0.0 0.4
16:12 11.0 10.9 99 1014.4 22.8 SW 27.3 0.0 0.4
16:13 11.0 10.9 99 1014.4 25.9 W 27.3 0.0 0.4
16:14 11.0 10.9 99 1014.4 23.5 NNW 27.3 0.0 0.4
16:15 11.0 10.9 99 1014.5 28.2 SW 28.2 0.0 0.4
16:16 11.0 10.9 99 1014.4 22.8 W 28.2 0.0 0.4
16:17 11.0 10.9 99 1014.5 19.7 NW 28.2 0.0 0.4
16:18 11.0 10.9 99 1014.4 22.1 S 28.2 0.0 0.4
16:19 11.0 10.9 99 1014.5 25.1 NNE 28.2 0.0 0.4
16:20 11.0 10.9 99 1014.3 29.8 NNE 29.8 0.0 0.4
16:21 11.0 10.9 99 1014.4 32.0 SW 32.0 0.0 0.4
16:23 11.0 10.9 99 1014.5 18.3 SW 32.0 0.0 0.4
16:24 11.0 10.9 99 1014.5 23.5 SW 32.0 0.0 0.4
16:25 11.0 10.9 99 1014.4 20.6 WNW 32.0 0.0 0.4
16:26 11.0 10.9 99 1014.5 20.6 NNW 32.0 0.0 0.4
16:27 11.0 10.9 99 1014.5 22.8 W 32.0 0.0 0.4
16:28 11.0 10.9 99 1014.5 22.8 WSW 32.0 0.0 0.4
16:29 11.0 10.9 99 1014.4 21.3 SW 32.0 0.0 0.4
16:30 11.2 11.1 99 1014.5 25.1 WNW 32.0 0.0 0.4
16:31 11.0 10.9 99 1014.4 20.6 NW 25.1 0.0 0.4
16:32 11.0 10.9 99 1014.7 22.8 NW 25.1 0.0 0.4
16:33 11.0 10.9 99 1014.6 22.8 N 25.1 0.0 0.4
16:34 11.0 10.9 99 1014.5 25.1 SW 26.6 0.0 0.4
16:35 11.0 10.9 99 1014.5 22.1 SW 26.6 0.0 0.4
16:36 11.0 10.9 99 1014.5 27.3 WNW 27.3 0.0 0.4
16:37 10.9 10.8 99 1014.5 21.3 W 27.3 0.0 0.4
16:38 10.9 10.8 99 1014.5 22.1 WNW 27.3 0.0 0.4
16:40 11.0 10.9 99 1014.6 25.9 WNW 27.3 0.0 0.4
16:41 11.0 10.9 99 1014.5 22.8 NW 27.3 0.0 0.4
16:42 11.0 10.9 99 1014.5 22.1 W 27.3 0.0 0.4
16:43 11.0 10.9 99 1014.5 26.6 NW 27.3 0.0 0.4
16:44 11.0 10.9 99 1014.5 22.8 SW 27.3 0.0 0.4
16:45 11.0 10.9 99 1014.5 19.7 SW 27.3 0.0 0.4
16:46 11.0 10.9 99 1014.5 18.3 N 26.6 0.0 0.4
16:47 11.0 10.9 99 1014.5 21.3 NW 26.6 0.0 0.4
16:48 11.0 10.9 99 1014.4 18.3 WNW 26.6 0.0 0.4
16:49 11.0 10.9 99 1014.5 22.1 SW 26.6 0.0 0.4
16:50 11.0 10.9 99 1014.7 21.3 NW 26.6 0.0 0.4
16:51 11.0 10.9 99 1014.5 25.1 S 26.6 0.0 0.4
16:52 11.0 10.9 99 1014.5 22.1 S 26.6 0.0 0.4
16:53 10.9 10.8 99 1014.6 20.6 NW 26.6 0.0 0.4
16:54 11.0 10.9 99 1014.6 21.3 SW 26.6 0.0 0.4
16:55 11.0 10.9 99 1014.5 17.4 NW 25.1 0.0 0.4
16:56 10.9 10.8 99 1014.6 20.6 SW 25.1 0.0 0.4
16:57 11.0 10.9 99 1014.5 23.5 SW 25.1 0.0 0.4
16:58 10.9 10.8 99 1014.5 24.4 SW 25.1 0.0 0.4
16:59 10.9 10.8 99 1014.5 24.4 SW 25.9 0.0 0.4
17:00 10.9 10.8 99 1014.9 27.3 SW 27.3 0.0 0.4
17:01 10.9 10.8 99 1014.5 26.6 WSW 27.3 0.0 0.4
17:02 10.9 10.8 99 1014.5 26.6 SW 27.3 0.0 0.4
17:03 10.9 10.8 99 1014.5 26.6 SW 27.3 0.0 0.4
17:04 10.9 10.8 99 1014.5 27.3 NW 27.3 0.0 0.4
17:05 10.9 10.8 99 1014.5 27.3 NW 27.3 0.0 0.4
17:06 10.9 10.8 99 1014.5 26.6 WNW 27.3 0.0 0.4
17:07 10.9 10.8 99 1014.6 21.3 S 27.3 0.0 0.4
17:08 10.9 10.8 99 1014.7 22.1 S 27.3 0.0 0.4
17:09 10.9 10.8 99 1014.7 23.5 SW 27.3 0.0 0.4
17:10 10.9 10.8 99 1014.6 24.4 NW 27.3 0.0 0.4
17:11 10.9 10.8 99 1014.8 27.3 SW 27.3 0.0 0.4
17:12 10.9 10.8 99 1014.6 26.6 SW 27.3 0.0 0.4
17:13 10.9 10.8 99 1014.7 25.1 SW 27.3 0.0 0.4
17:14 10.9 10.8 99 1014.6 22.1 SW 27.3 0.0 0.4
17:15 10.9 10.8 99 1014.6 22.8 SW 27.3 0.0 0.4
17:16 10.9 10.8 99 1014.7 22.8 WSW 27.3 0.0 0.4
17:17 10.9 10.8 99 1014.5 22.8 SW 27.3 0.0 0.4
17:18 10.9 10.8 99 1014.6 19.0 W 27.3 0.0 0.4
17:19 10.9 10.8 99 1014.7 22.8 SW 27.3 0.0 0.4
17:20 10.9 10.8 99 1014.5 24.4 NW 27.3 0.0 0.4
17:21 10.9 10.8 99 1014.8 19.0 SW 27.3 0.0 0.4
17:22 10.9 10.8 99 1014.6 23.5 NW 27.3 0.0 0.4
17:23 10.8 10.7 99 1014.8 19.0 W 27.3 0.0 0.4
17:24 10.9 10.8 99 1014.6 17.4 W 27.3 0.0 0.4
17:25 10.8 10.7 99 1014.8 22.8 SW 27.3 0.0 0.4
17:26 10.8 10.7 99 1014.6 17.4 SW 27.3 0.0 0.4
17:27 10.8 10.7 99 1014.6 19.7 SW 27.3 0.0 0.4
17:28 10.8 10.7 99 1014.6 18.3 NW 27.3 0.0 0.4
17:29 10.8 10.7 99 1014.5 17.4 NW 27.3 0.0 0.4
17:30 10.8 10.7 99 1014.5 19.7 SW 27.3 0.0 0.4
17:31 10.8 10.7 99 1014.6 18.3 SW 25.9 0.0 0.4
17:32 10.8 10.7 99 1014.9 21.3 WSW 25.9 0.0 0.4
17:33 10.8 10.7 99 1014.7 15.9 WSW 25.9 0.0 0.4
17:34 10.8 10.7 99 1014.7 15.2 S 25.1 0.0 0.4
17:35 10.8 10.7 99 1014.6 22.1 SW 25.1 0.0 0.4
17:36 10.8 10.7 99 1014.6 25.9 SW 25.9 0.0 0.4
17:37 10.8 10.7 99 1014.6 24.4 SW 25.9 0.0 0.4
17:38 10.8 10.7 99 1014.6 20.6 SW 25.9 0.0 0.4
17:39 10.8 10.7 99 1014.7 19.7 SW 25.9 0.0 0.4
17:40 10.8 10.7 99 1014.6 17.4 SW 25.9 0.0 0.4
17:41 10.8 10.7 99 1014.7 19.0 SW 25.9 0.0 0.4
17:42 10.8 10.7 99 1014.6 22.1 S 25.9 0.0 0.4
17:43 10.8 10.7 99 1014.7 21.3 WSW 25.9 0.0 0.4
17:44 10.8 10.7 99 1014.7 22.8 SW 25.9 0.0 0.4
17:45 10.8 10.7 99 1014.8 20.6 SW 25.9 0.0 0.4
17:46 10.8 10.7 99 1014.6 24.4 SW 24.4 0.0 0.4
17:47 10.8 10.7 99 1014.7 21.3 NW 24.4 0.0 0.4
17:48 10.8 10.7 99 1014.7 28.2 W 28.2 0.0 0.4
17:49 10.8 10.7 99 1014.5 17.4 W 28.2 0.0 0.4
17:50 10.8 10.7 99 1014.8 22.1 WNW 28.2 0.0 0.4
17:51 10.8 10.7 99 1014.9 16.8 S 28.2 0.0 0.4
17:52 10.8 10.7 99 1014.9 19.0 S 28.2 0.0 0.4
17:53 10.8 10.7 99 1014.7 26.6 W 28.2 0.0 0.4
17:54 10.8 10.7 99 1014.8 22.1 W 28.2 0.0 0.4
17:55 10.8 10.7 99 1014.8 16.8 SE 28.2 0.0 0.4
17:56 10.8 10.7 99 1014.9 22.8 NW 28.2 0.0 0.4
17:57 10.8 10.7 99 1014.7 25.1 WSW 28.2 0.0 0.4
17:58 10.8 10.7 99 1014.9 21.3 WSW 27.3 0.0 0.4
17:59 10.8 10.7 99 1014.8 18.3 SW 27.3 0.0 0.4
18:00 10.8 10.7 99 1014.7 26.6 N 27.3 0.0 0.4
18:01 10.8 10.7 99 1014.7 23.5 NW 27.3 0.0 0.4
18:02 10.8 10.7 99 1015.1 22.8 NW 27.3 0.0 0.4
18:03 10.8 10.7 99 1014.7 18.3 SW 27.3 0.0 0.4
18:04 10.8 10.7 99 1014.4 25.9 W 26.6 0.0 0.4
18:05 10.8 10.7 99 1014.7 21.3 SSW 26.6 0.0 0.4
18:06 10.8 10.7 99 1014.8 16.8 SW 26.6 0.0 0.4
18:07 10.8 10.7 99 1014.6 22.1 S 26.6 0.0 0.4
18:08 10.8 10.7 99 1014.7 20.6 SW 26.6 0.0 0.4
18:09 10.8 10.7 99 1014.8 17.4 NW 26.6 0.0 0.4
18:10 10.8 10.7 99 1014.8 28.2 SW 28.2 0.0 0.4
18:11 10.8 10.7 99 1014.6 22.1 SW 28.2 0.0 0.4
18:12 10.8 10.7 99 1014.7 22.1 SW 28.2 0.0 0.4
18:13 10.8 10.7 99 1014.6 25.1 S 28.2 0.0 0.4
18:14 10.8 10.7 99 1014.6 25.9 SW 28.2 0.0 0.4
18:15 10.8 10.7 99 1014.8 21.3 W 28.2 0.0 0.4
18:16 10.8 10.7 99 1014.5 25.1 SW 28.2 0.0 0.4
18:17 10.8 10.7 99 1014.7 22.8 S 28.2 0.0 0.4
18:18 10.8 10.7 99 1014.8 28.2 SW 28.2 0.0 0.4
18:19 10.8 10.7 99 1014.9 18.3 S 28.2 0.0 0.4
18:20 10.8 10.7 99 1014.9 18.3 S 28.2 0.0 0.4
18:21 10.8 10.7 99 1014.7 23.5 SW 28.2 0.0 0.4
18:22 10.8 10.7 99 1014.6 23.5 SW 28.2 0.0 0.4
18:23 10.8 10.7 99 1014.7 26.6 SW 28.2 0.0 0.4
18:24 10.8 10.7 99 1014.5 19.7 SW 28.2 0.0 0.4
18:25 10.8 10.7 99 1014.7 19.7 WSW 28.2 0.0 0.4
18:26 10.8 10.7 99 1014.6 23.5 SW 28.2 0.0 0.4
18:27 10.8 10.7 99 1014.6 25.9 SW 28.2 0.0 0.4
18:28 10.8 10.7 99 1014.6 26.6 NW 26.6 0.0 0.4
18:29 10.8 10.7 99 1015.0 23.5 SW 26.6 0.0 0.4
18:30 10.9 10.8 99 1014.5 23.5 W 26.6 0.0 0.4
18:31 10.8 10.7 99 1014.8 25.9 NW 26.6 0.0 0.4
18:32 10.8 10.7 99 1014.9 21.3 SW 26.6 0.0 0.4
18:33 10.8 10.7 99 1014.8 28.2 S 28.2 0.0 0.4
18:34 10.8 10.7 99 1014.7 26.6 SW 28.2 0.0 0.4
18:35 10.8 10.7 99 1014.8 25.1 SW 28.2 0.0 0.4
18:36 10.8 10.7 99 1014.8 25.1 SW 28.2 0.0 0.4
18:37 10.8 10.7 99 1014.7 13.6 W 28.2 0.0 0.4
18:38 10.8 10.7 99 1014.7 28.9 SW 28.9 0.0 0.4
18:39 10.8 10.7 99 1014.7 26.6 SW 28.9 0.0 0.4
18:40 10.8 10.7 99 1014.7 24.4 SW 28.9 0.0 0.4
18:41 10.8 10.7 99 1014.6 17.4 SW 28.9 0.0 0.4
18:42 10.8 10.7 99 1014.7 27.3 SW 28.9 0.0 0.4
18:43 10.8 10.7 99 1014.5 27.3 NW 28.9 0.0 0.4
18:44 10.8 10.7 99 1014.8 30.4 SW 30.4 0.0 0.4
18:45 10.8 10.7 99 1014.7 22.8 W 30.4 0.0 0.4
18:46 10.8 10.7 99 1014.7 23.5 SW 30.4 0.0 0.4
18:47 10.8 10.7 99 1014.8 17.4 SW 30.4 0.0 0.4
18:48 10.8 10.7 99 1014.8 21.3 NW 30.4 0.0 0.4
18:49 10.8 10.7 99 1014.7 21.3 SW 30.4 0.0 0.4
18:50 10.8 10.7 99 1014.8 22.1 WSW 30.4 0.0 0.4
18:51 10.8 10.7 99 1015.0 14.5 W 30.4 0.0 0.4
18:52 10.8 10.7 99 1014.7 22.8 SW 30.4 0.0 0.4
18:53 10.8 10.7 99 1014.7 17.4 SW 30.4 0.0 0.4
18:54 10.8 10.7 99 1014.8 22.1 SW 30.4 0.0 0.4
18:55 10.8 10.7 99 1014.5 31.1 S 31.1 0.0 0.4
18:56 10.8 10.7 99 1014.8 29.8 S 31.1 0.0 0.4
18:57 10.8 10.7 99 1015.0 14.5 SW 31.1 0.0 0.4
18:58 10.8 10.7 99 1014.9 19.7 NW 31.1 0.0 0.4
18:59 10.8 10.7 99 1014.8 19.7 NW 31.1 0.0 0.4
19:00 10.8 10.7 99 1014.9 19.0 SW 31.1 0.0 0.4
19:01 10.8 10.7 99 1014.8 22.8 SW 31.1 0.0 0.4
19:02 10.8 10.7 99 1014.8 19.7 W 31.1 0.0 0.4
19:03 10.8 10.7 99 1014.8 22.8 SW 31.1 0.0 0.4
19:04 10.8 10.7 99 1014.9 24.4 N 31.1 0.0 0.4
19:05 10.8 10.7 99 1014.8 24.4 N 29.8 0.0 0.4
19:06 10.8 10.7 99 1014.8 25.9 N 25.9 0.0 0.4
19:07 10.8 10.7 99 1014.8 24.4 SW 25.9 0.0 0.4
19:08 10.8 10.7 99 1014.8 30.4 SW 30.4 0.0 0.5
19:09 10.8 10.7 99 1014.9 26.6 W 30.4 0.8 0.5
19:10 10.8 10.7 99 1014.7 22.8 N 30.4 0.8 0.5
19:11 10.8 10.7 99 1014.8 20.6 SW 30.4 0.8 0.5
19:12 10.8 10.7 99 1014.9 25.9 SW 30.4 0.8 0.5
19:13 10.8 10.7 99 1014.9 21.3 WSW 30.4 0.8 0.5
19:14 10.8 10.7 99 1015.0 20.6 SW 30.4 0.0 0.5
19:15 10.8 10.7 99 1014.9 17.4 SW 30.4 0.0 0.5
19:16 10.8 10.7 99 1014.9 23.5 NW 30.4 0.0 0.5
19:17 10.8 10.7 99 1014.8 23.5 WSW 30.4 0.0 0.5
19:18 10.8 10.7 99 1014.6 24.4 NW 30.4 0.0 0.5
19:20 10.8 10.7 99 1014.8 24.4 SW 25.9 0.0 0.5
19:21 10.8 10.7 99 1014.7 23.5 WSW 25.9 0.0 0.5
19:22 10.8 10.7 99 1014.6 22.1 SW 25.9 0.0 0.5
19:23 10.8 10.7 99 1014.9 20.6 SW 25.9 0.0 0.5
19:24 10.8 10.7 99 1014.9 16.8 SW 25.9 0.0 0.5
19:25 10.8 10.7 99 1015.0 20.6 SW 25.9 0.0 0.5
19:26 10.8 10.7 99 1014.6 22.1 SW 25.9 0.0 0.5
19:27 10.8 10.7 99 1014.7 22.1 NNW 25.9 0.0 0.5
19:28 10.8 10.7 99 1014.6 25.1 NW 25.9 0.0 0.5
19:29 10.8 10.7 99 1014.7 19.0 SW 25.9 0.0 0.5
19:30 10.8 10.7 99 1014.7 22.1 SW 25.9 0.0 0.5
19:31 10.8 10.7 99 1014.7 30.4 SSW 30.4 0.0 0.5
19:32 10.8 10.7 99 1014.8 20.6 SW 30.4 0.0 0.5
19:33 10.8 10.7 99 1014.9 19.0 S 30.4 0.0 0.5
19:34 10.8 10.7 99 1014.5 20.6 SW 30.4 0.0 0.5
19:35 10.8 10.7 99 1014.9 22.8 WNW 30.4 0.0 0.5
19:36 10.8 10.7 99 1014.9 29.8 SW 30.4 0.0 0.5
19:37 10.8 10.7 99 1014.9 27.3 S 30.4 0.0 0.5
19:38 10.8 10.7 99 1014.8 28.2 NW 30.4 0.0 0.5
19:39 10.8 10.7 99 1014.7 19.7 S 30.4 0.0 0.5
19:40 10.8 10.7 99 1014.9 19.0 WSW 30.4 0.0 0.5
19:41 10.8 10.7 99 1014.8 21.3 SW 29.8 0.0 0.5
19:42 10.8 10.7 99 1014.8 20.6 WNW 29.8 0.0 0.5
19:43 10.8 10.7 99 1015.1 28.2 SW 29.8 0.0 0.5
19:44 10.8 10.7 99 1014.7 23.5 WSW 29.8 0.0 0.5
19:45 10.8 10.7 99 1014.7 27.3 SW 29.8 0.0 0.5
19:46 10.8 10.7 99 1014.8 20.6 SW 28.2 0.0 0.5
19:47 10.8 10.7 99 1014.8 29.8 W 29.8 0.0 0.5
19:48 10.8 10.7 99 1014.8 26.6 SW 29.8 0.0 0.5
19:49 10.8 10.7 99 1014.8 25.1 SW 29.8 0.0 0.5
19:50 10.8 10.7 99 1015.0 34.9 SW 34.9 0.0 0.5
19:51 10.8 10.7 99 1014.9 19.0 W 34.9 0.0 0.5
19:52 10.8 10.7 99 1015.0 22.1 SW 34.9 0.0 0.5
19:53 10.8 10.7 99 1014.7 26.6 WSW 34.9 0.0 0.5
19:54 10.8 10.7 99 1014.7 28.9 SW 34.9 0.0 0.5
19:55 10.8 10.7 99 1014.8 25.9 SW 34.9 0.0 0.5
19:56 10.8 10.7 99 1014.8 19.7 WSW 34.9 0.0 0.5
19:57 10.8 10.7 99 1014.5 23.5 SW 34.9 0.0 0.5
19:58 10.8 10.7 99 1014.8 23.5 WNW 34.9 0.0 0.5
19:59 10.8 10.7 99 1014.6 22.1 WNW 34.9 0.0 0.5
20:00 10.8 10.7 99 1014.7 22.8 WSW 34.9 0.0 0.5
20:01 10.8 10.7 99 1014.7 21.3 SW 28.9 0.0 0.5
20:02 10.8 10.7 99 1014.7 24.4 NW 28.9 0.0 0.5
20:03 10.8 10.7 99 1014.7 24.4 SW 28.9 0.0 0.5
20:04 10.8 10.7 99 1014.6 22.1 W 26.6 0.0 0.5
20:05 10.8 10.7 99 1014.5 22.1 W 26.6 0.0 0.5
20:06 10.8 10.7 99 1014.8 21.3 SW 26.6 0.0 0.5
20:07 10.8 10.7 99 1014.7 25.1 SW 27.3 0.0 0.5
20:08 10.8 10.7 99 1014.6 25.1 SW 27.3 0.0 0.5
20:09 10.8 10.7 99 1014.7 25.1 SW 27.3 0.0 0.5
20:10 10.8 10.7 99 1014.7 23.5 SW 27.3 0.0 0.5
20:11 10.8 10.7 99 1014.6 31.1 SW 31.1 0.0 0.5
20:12 10.8 10.7 99 1014.7 24.4 SW 31.1 0.0 0.5
20:13 10.8 10.7 99 1014.8 23.5 W 31.1 0.0 0.5
20:14 10.8 10.7 99 1014.7 22.1 N 31.1 0.0 0.5
20:15 10.8 10.7 99 1014.6 29.8 SW 31.1 0.0 0.5
20:16 10.8 10.7 99 1014.8 22.1 NW 31.1 0.0 0.5
20:17 10.8 10.7 99 1014.8 24.4 SW 31.1 0.0 0.5
20:18 10.8 10.7 99 1014.7 25.1 W 31.1 0.0 0.5
20:19 10.8 10.7 99 1014.6 27.3 SW 31.1 0.0 0.5
20:20 10.8 10.7 99 1014.7 25.9 SW 31.1 0.0 0.5
20:22 10.8 10.7 99 1014.8 23.5 SSW 29.8 0.0 0.5
20:23 10.8 10.7 99 1014.6 23.5 SW 29.8 0.0 0.5
20:24 10.8 10.7 99 1014.8 23.5 SW 29.8 0.0 0.5
20:25 10.8 10.7 99 1014.7 28.2 W 28.2 0.0 0.5
20:26 10.8 10.7 99 1014.8 25.9 SW 28.2 0.0 0.5
20:27 10.8 10.7 99 1014.7 25.9 W 28.2 0.0 0.5
20:28 10.8 10.7 99 1014.7 26.6 W 28.2 0.0 0.5
20:29 10.8 10.7 99 1014.8 26.6 W 28.2 0.0 0.5
20:30 10.8 10.7 99 1014.6 26.6 W 28.2 0.0 0.5
20:31 10.8 10.7 99 1014.7 23.5 W 28.2 0.0 0.5
20:32 10.8 10.7 99 1014.6 22.1 SW 28.2 0.0 0.5
20:33 10.8 10.7 99 1014.7 18.3 SW 28.2 0.0 0.5
20:34 10.8 10.7 99 1014.7 26.6 WSW 28.2 0.0 0.5
20:35 10.8 10.7 99 1014.8 23.5 W 28.2 0.0 0.5
20:36 10.8 10.7 99 1014.6 30.4 SE 30.4 0.0 0.5
20:37 10.8 10.7 99 1014.6 20.6 SW 30.4 0.0 0.5
20:38 10.7 10.6 99 1014.8 22.1 SW 30.4 0.0 0.5
20:39 10.8 10.7 99 1014.7 27.3 SW 30.4 0.0 0.5
20:41 10.7 10.6 99 1014.6 32.7 SW 32.7 0.0 0.5
20:42 10.7 10.6 99 1014.6 28.2 SW 32.7 0.0 0.5
20:43 10.7 10.6 99 1014.5 29.8 SW 32.7 0.0 0.5
20:44 10.7 10.6 99 1014.6 24.4 SW 32.7 0.0 0.5
20:45 10.7 10.6 99 1014.6 24.4 SW 32.7 0.0 0.5
20:46 10.7 10.6 99 1014.6 23.5 N 32.7 0.0 0.5
20:47 10.7 10.6 99 1014.6 26.6 N 32.7 0.0 0.5
20:48 10.7 10.6 99 1014.6 29.8 WNW 32.7 0.0 0.5
20:49 10.7 10.6 99 1014.4 30.4 N 32.7 0.0 0.5
20:50 10.7 10.6 99 1014.7 32.0 N 32.7 0.0 0.5
20:51 10.7 10.6 99 1014.6 28.2 WSW 32.7 0.0 0.5
20:52 10.7 10.6 99 1014.8 23.5 SW 32.0 0.0 0.5
20:53 10.7 10.6 99 1014.6 23.5 NW 32.0 0.0 0.5
20:54 10.7 10.6 99 1014.7 24.4 SW 32.0 0.0 0.5
20:55 10.7 10.6 99 1014.6 22.1 ESE 32.0 0.0 0.5
20:56 10.7 10.6 99 1014.7 19.0 WSW 32.0 0.0 0.5
20:57 10.7 10.6 99 1014.7 23.5 WSW 32.0 0.0 0.5
20:58 10.7 10.6 99 1014.7 29.8 NW 32.0 0.0 0.5
20:59 10.7 10.6 99 1014.7 29.8 SW 32.0 0.0 0.5
21:00 10.7 10.6 99 1014.8 26.6 SW 29.8 0.0 0.5
21:02 10.7 10.6 99 1014.7 29.8 SW 29.8 0.0 0.5
21:03 10.7 10.6 99 1014.7 29.8 WSW 29.8 0.0 0.5
21:04 10.7 10.6 99 1014.9 28.2 S 29.8 0.0 0.5
21:05 10.7 10.6 99 1014.8 28.2 S 29.8 0.0 0.5
21:06 10.7 10.6 99 1014.6 22.1 WNW 29.8 0.0 0.5
21:07 10.7 10.6 99 1014.6 31.1 WNW 31.1 0.0 0.5
21:08 10.7 10.6 99 1014.6 31.1 WNW 31.1 0.0 0.5
21:09 10.7 10.6 99 1014.7 31.1 SW 31.1 0.0 0.5
21:10 10.7 10.6 99 1014.7 15.9 N 31.1 0.0 0.5
21:11 10.7 10.6 99 1014.6 15.9 N 31.1 0.0 0.5
21:12 10.7 10.6 99 1014.7 15.9 N 31.1 0.0 0.5
21:13 10.7 10.6 99 1014.9 24.4 S 31.1 0.0 0.5
21:14 10.7 10.6 99 1014.8 27.3 SW 31.1 0.0 0.5
21:15 10.7 10.6 99 1014.8 22.8 SW 31.1 0.0 0.5
21:16 10.7 10.6 99 1014.8 25.9 SW 31.1 0.0 0.5
21:17 10.7 10.6 99 1014.8 24.4 S 31.1 0.0 0.5
21:18 10.7 10.6 99 1014.9 23.5 SW 31.1 0.0 0.5
21:19 10.7 10.6 99 1014.9 29.8 SW 31.1 0.0 0.5
21:20 10.7 10.6 99 1014.7 22.8 SSW 29.8 0.0 0.5
21:21 10.7 10.6 99 1014.8 22.8 SSW 29.8 0.0 0.5
21:22 10.7 10.6 99 1014.7 19.7 SW 29.8 0.0 0.5
21:23 10.7 10.6 99 1014.6 22.8 WSW 29.8 0.0 0.5
21:24 10.7 10.6 99 1014.9 19.0 SW 29.8 0.0 0.5
21:25 10.7 10.6 99 1014.7 16.8 SW 29.8 0.0 0.5
21:26 10.7 10.6 99 1014.5 25.1 SW 29.8 0.0 0.5
21:27 10.7 10.6 99 1014.9 23.5 SW 29.8 0.0 0.5
21:29 10.6 10.5 99 1014.7 33.6 SW 33.6 0.0 0.5
21:30 10.6 10.5 99 1014.6 19.0 N 33.6 0.0 0.5
21:31 10.6 10.5 99 1014.7 19.7 SW 33.6 0.0 0.5
21:32 10.6 10.5 99 1014.8 19.7 SW 33.6 0.0 0.5
21:33 10.6 10.5 99 1014.8 19.7 SW 33.6 0.0 0.5
21:34 10.6 10.5 99 1015.0 24.4 SW 33.6 0.0 0.5
21:35 10.6 10.5 99 1014.8 25.1 SW 33.6 0.0 0.5
21:36 10.6 10.5 99 1014.6 22.8 W 33.6 0.0 0.5
21:37 10.6 10.5 99 1014.7 23.5 SW 33.6 0.0 0.5
21:38 10.6 10.5 99 1014.7 25.9 NNW 33.6 0.0 0.5
21:39 10.6 10.5 99 1014.7 24.4 SW 33.6 0.0 0.5
21:40 10.6 10.5 99 1015.0 25.1 SW 32.0 0.0 0.5
21:41 10.6 10.5 99 1014.9 25.1 WNW 32.0 0.0 0.5
21:42 10.6 10.5 99 1015.0 25.9 WNW 32.0 0.0 0.5
21:43 10.6 10.5 99 1014.9 22.8 NW 32.0 0.0 0.5
21:44 10.6 10.5 99 1014.8 25.9 SW 32.0 0.0 0.5
21:45 10.6 10.5 99 1015.0 19.7 NNE 29.8 0.0 0.5
21:46 10.6 10.5 99 1014.9 20.6 NE 29.8 0.0 0.5
21:47 10.6 10.5 99 1014.8 19.0 NE 29.8 0.0 0.5
21:48 10.6 10.5 99 1015.0 24.4 WNW 29.8 0.0 0.5
21:49 10.6 10.5 99 1014.9 25.9 NNW 29.8 0.0 0.5
21:50 10.6 10.5 99 1015.1 32.7 SW 32.7 0.0 0.5
21:51 10.6 10.5 99 1014.9 25.1 NW 32.7 0.0 0.5
21:52 10.6 10.5 99 1015.0 24.4 NW 32.7 0.0 0.5
21:53 10.6 10.5 99 1015.0 22.1 SW 32.7 0.0 0.5
21:54 10.6 10.5 99 1015.0 27.3 SW 32.7 0.0 0.5
21:55 10.6 10.5 99 1015.0 25.9 SW 32.7 0.0 0.5
21:56 10.6 10.5 99 1015.0 27.3 WNW 32.7 0.0 0.5
21:58 10.6 10.5 99 1015.0 19.7 W 32.7 0.0 0.5
21:59 10.6 10.5 99 1015.2 20.6 S 32.7 0.0 0.5
22:00 10.6 10.5 99 1015.0 32.0 SW 32.0 0.0 0.5
22:01 10.6 10.5 99 1014.9 28.2 W 32.0 0.0 0.5
22:02 10.6 10.5 99 1015.0 25.9 SW 32.0 0.0 0.5
22:03 10.6 10.5 99 1015.2 32.7 SW 35.8 0.0 0.5
22:04 10.6 10.5 99 1014.8 26.6 SW 35.8 0.0 0.5
22:05 10.6 10.5 99 1015.2 26.6 SW 35.8 0.0 0.5
22:06 10.6 10.5 99 1015.1 23.5 WSW 35.8 0.0 0.5
22:07 10.6 10.5 99 1015.1 25.9 SW 35.8 0.0 0.5
22:08 10.6 10.5 99 1015.0 25.9 W 35.8 0.0 0.5
22:09 10.6 10.5 99 1015.1 21.3 S 35.8 0.0 0.5
22:10 10.6 10.5 99 1015.2 19.7 S 35.8 0.0 0.5
22:11 10.6 10.5 99 1015.2 19.0 W 35.8 0.0 0.5
22:12 10.6 10.5 99 1015.2 20.6 W 35.8 0.0 0.5
22:13 10.4 10.3 99 1015.0 27.3 W 32.7 0.0 0.5
22:14 10.6 10.5 99 1015.2 22.8 SW 32.0 0.0 0.5
22:15 10.6 10.5 99 1015.2 28.9 SW 32.0 0.0 0.5
22:17 10.6 10.5 99 1015.1 26.6 SSW 32.0 0.0 0.5
22:18 10.6 10.5 99 1015.1 22.8 SW 32.0 0.0 0.5
22:19 10.6 10.5 99 1014.9 19.7 SW 32.0 0.0 0.5
22:20 10.6 10.5 99 1015.0 22.8 WNW 32.0 0.0 0.5
22:21 10.6 10.5 99 1015.1 23.5 S 32.0 0.0 0.5
22:22 10.6 10.5 99 1015.0 22.8 SW 32.0 0.0 0.5
22:23 10.6 10.5 99 1015.1 21.3 SW 29.8 0.0 0.5
22:24 10.6 10.5 99 1015.0 25.1 SW 29.8 0.0 0.5
22:25 10.6 10.5 99 1014.8 26.6 SW 29.8 0.0 0.5
22:26 10.6 10.5 99 1015.0 25.1 NW 29.8 0.0 0.5
22:27 10.6 10.5 99 1014.8 33.6 SW 33.6 0.8 0.6
22:28 10.6 10.5 99 1015.0 28.9 NW 33.6 0.8 0.6
22:29 10.6 10.5 99 1014.8 25.9 SW 33.6 0.8 0.6
22:30 10.6 10.5 99 1014.8 25.1 SW 33.6 0.8 0.6
22:31 10.6 10.5 99 1014.9 26.6 SW 33.6 0.8 0.6
22:32 10.6 10.5 99 1014.9 28.9 S 33.6 0.0 0.6
22:33 10.6 10.5 99 1014.8 21.3 W 33.6 0.0 0.6
22:34 10.6 10.5 99 1014.8 18.3 SW 33.6 0.0 0.6
22:36 10.6 10.5 99 1014.6 26.6 SW 33.6 0.0 0.6
22:37 10.6 10.5 99 1014.3 21.3 NW 29.8 0.0 0.6
22:38 10.6 10.5 99 1014.7 26.6 NW 29.8 0.0 0.6
22:39 10.6 10.5 99 1014.6 31.1 SW 31.1 0.0 0.6
22:40 10.6 10.5 99 1014.9 25.9 N 31.1 0.0 0.6
22:41 10.6 10.5 99 1014.6 20.6 SW 31.1 0.0 0.6
22:42 10.6 10.5 99 1014.6 26.6 SW 31.1 0.0 0.6
22:43 10.6 10.5 99 1014.7 23.5 SW 31.1 0.0 0.6
22:44 10.6 10.5 99 1014.8 23.5 SW 31.1 0.0 0.6
22:45 10.6 10.5 99 1014.8 26.6 NNE 31.1 0.0 0.6
22:46 10.6 10.5 99 1014.7 27.3 NNW 31.1 0.0 0.6
22:47 10.6 10.5 99 1014.9 28.9 SW 31.1 0.0 0.6
22:48 10.6 10.5 99 1014.5 31.1 SW 31.1 0.0 0.6
22:49 10.6 10.5 99 1014.8 22.8 S 31.1 0.0 0.6
22:50 10.6 10.5 99 1014.8 16.8 SW 31.1 0.0 0.6
22:51 10.6 10.5 99 1014.6 28.9 SW 31.1 0.0 0.6
22:52 10.6 10.5 99 1014.8 19.7 SW 31.1 0.0 0.6
22:53 10.6 10.5 99 1014.5 19.7 WNW 31.1 0.0 0.6
22:55 10.6 10.5 99 1014.7 23.5 NW 31.1 0.0 0.6
22:56 10.6 10.5 99 1014.6 27.3 NW 31.1 0.0 0.6
22:57 10.7 10.6 99 1014.6 24.4 WNW 31.1 0.0 0.6
22:58 10.7 10.6 99 1014.6 30.4 SW 30.4 0.0 0.6
22:59 10.7 10.6 99 1014.8 22.8 WSW 30.4 0.0 0.6
23:00 10.7 10.6 99 1014.6 28.2 SW 30.4 0.0 0.6
23:01 10.7 10.6 99 1014.7 25.1 SW 30.4 0.0 0.6
23:02 10.7 10.6 99 1014.6 28.2 SSW 30.4 0.0 0.6
23:03 10.7 10.6 99 1014.7 21.3 NNW 30.4 0.0 0.6
23:04 10.7 10.6 99 1014.5 22.1 NW 30.4 0.0 0.6
23:05 10.7 10.6 99 1014.8 25.1 SW 30.4 0.0 0.6
23:06 10.7 10.6 99 1014.8 21.3 S 30.4 0.0 0.6
23:07 10.7 10.6 99 1014.6 23.5 SW 30.4 0.0 0.6
23:08 10.7 10.6 99 1014.7 22.8 SW 30.4 0.0 0.6
23:09 10.7 10.6 99 1014.5 22.1 S 28.9 0.0 0.6
23:10 10.7 10.6 99 1014.5 21.3 S 28.9 0.0 0.6
23:11 10.7 10.6 99 1014.5 24.4 NW 28.9 0.0 0.6
23:12 10.7 10.6 99 1014.8 24.4 SW 28.9 0.0 0.6
23:13 10.7 10.6 99 1014.6 27.3 NW 28.9 0.0 0.6
23:14 10.7 10.6 99 1014.6 28.2 NW 28.9 0.0 0.6
23:15 10.7 10.6 99 1014.6 29.8 SW 29.8 0.0 0.6
23:16 10.7 10.6 99 1014.5 22.8 SW 29.8 0.0 0.6
23:17 10.7 10.6 99 1014.3 26.6 WNW 29.8 0.0 0.6
23:20 10.7 10.6 99 1014.2 26.6 SW 29.8 0.0 0.6
23:21 10.7 10.6 99 1014.6 29.8 SW 29.8 0.0 0.6
23:22 10.9 10.8 99 1014.5 28.2 W 29.8 0.0 0.6
23:23 10.7 10.6 99 1014.5 24.4 SW 29.8 0.0 0.6
23:24 10.7 10.6 99 1014.5 21.3 NW 29.8 0.0 0.6
23:25 10.7 10.6 99 1014.5 25.1 NW 29.8 0.0 0.6
23:26 10.7 10.6 99 1014.4 22.8 SW 29.8 0.0 0.6
23:27 10.7 10.6 99 1014.4 27.3 SW 29.8 0.0 0.6
23:28 10.7 10.6 99 1014.3 29.8 W 29.8 0.0 0.6
23:29 10.7 10.6 99 1014.3 32.0 WSW 33.6 0.0 0.6
23:30 10.7 10.6 99 1014.3 32.7 SW 33.6 0.0 0.6
23:31 10.7 10.6 99 1014.4 32.0 SW 33.6 0.0 0.6
23:32 10.7 10.6 99 1014.1 31.1 SW 33.6 0.0 0.6
23:33 10.7 10.6 99 1014.5 32.7 SW 33.6 0.0 0.6
23:34 10.7 10.6 99 1014.3 22.8 SW 33.6 0.0 0.6
23:35 10.7 10.6 99 1014.4 20.6 SW 33.6 0.0 0.6
23:36 10.7 10.6 99 1014.5 28.2 NNW 33.6 0.0 0.6
23:37 10.7 10.6 99 1014.3 28.2 NNW 33.6 0.0 0.6
23:39 10.7 10.6 99 1014.4 22.8 SW 33.6 0.0 0.6
23:40 10.7 10.6 99 1014.3 22.8 SW 33.6 0.0 0.6
23:41 10.7 10.6 99 1014.3 21.3 SW 33.6 0.0 0.6
23:42 10.7 10.6 99 1014.6 30.4 SW 33.6 0.0 0.6
23:43 10.7 10.6 99 1014.6 25.1 SW 30.4 0.0 0.6
23:44 10.7 10.6 99 1014.7 20.6 S 30.4 0.0 0.6
23:45 10.7 10.6 99 1014.6 28.2 SW 30.4 0.0 0.6
23:46 10.7 10.6 99 1014.7 28.2 S 30.4 0.0 0.6
23:47 10.7 10.6 99 1014.7 28.2 SW 30.4 0.0 0.6
23:48 10.7 10.6 99 1014.5 28.2 SW 30.4 0.0 0.6
23:49 10.7 10.6 99 1014.5 32.0 NW 32.0 0.0 0.6
23:50 10.7 10.6 99 1014.4 30.4 NW 32.0 0.0 0.6
23:51 10.7 10.6 99 1014.8 25.1 W 32.0 0.0 0.6
23:52 10.7 10.6 99 1014.7 24.4 SW 32.0 0.0 0.6
23:53 10.7 10.6 99 1014.6 28.2 WNW 32.0 0.0 0.6
23:54 10.7 10.6 99 1014.6 23.5 WNW 32.0 0.0 0.6
23:55 10.7 10.6 99 1014.7 22.8 SW 32.0 0.0 0.6
23:56 10.7 10.6 99 1014.5 24.4 SW 32.0 0.0 0.6
23:58 10.7 10.6 99 1014.3 25.9 SW 32.0 0.0 0.6
23:59 10.7 10.6 99 1014.5 29.8 SW 32.0 0.0 0.6

UK - WEATHER STATION TOPSITES - UK World Weather Websites

This is a private weather station, never base important decisions or events on data from this weather station. Although every effort has been made to make the data as accurate as possible it does not meet MetOffice standards. It is proved as a guide of local weather conditions. We accept no liability for any loss which may arise from use of the data.

Copyright © Carnkie Weather 2009 - 2019.